LU6FG Weather Reports


time (UTC)temp
C
wind
direction
speed
KPH
gust
KPH
rain 1hr
cm
rain 24hr
cm
rain mn
cm
humidity
%
barometer
mb
20260507170510 14 256 9.7 24.1 0.00 2.69 2.69 69 1006.5
20260507170432 14 252 9.7 24.1 0.00 2.69 2.69 69 1006.5
20260507170310 14 248 8.0 24.1 0.00 2.69 2.69 69 1006.6
20260507170232 14 245 8.0 24.1 0.00 2.69 2.69 70 1006.5
20260507170110 14 248 12.9 24.1 0.00 2.69 2.69 70 1006.5
20260507170011 14 243 8.0 24.1 0.00 2.69 2.69 70 1006.6
20260507165910 14 235 6.4 24.1 0.00 2.69 2.69 70 1006.7
20260507165810 14 231 6.4 24.1 0.00 2.69 2.69 70 1006.6
20260507165710 14 231 12.9 24.1 0.00 2.69 2.69 69 1006.7
20260507165610 14 244 6.4 20.9 0.00 2.69 2.69 70 1006.6
20260507165510 14 236 6.4 20.9 0.00 2.69 2.69 70 1006.8
20260507165410 14 246 12.9 27.4 0.00 2.69 2.69 69 1006.5
20260507165310 14 248 8.0 27.4 0.00 2.69 2.69 69 1006.5
20260507165210 14 255 8.0 27.4 0.00 2.69 2.69 69 1006.5
20260507165110 14 245 6.4 27.4 0.00 2.69 2.69 69 1006.4
20260507165032 14 246 6.4 27.4 0.00 2.69 2.69 69 1006.4
20260507164910 14 249 8.0 27.4 0.00 2.69 2.69 69 1006.1
20260507164810 14 243 12.9 27.4 0.00 2.69 2.69 69 1006.4
20260507164731 14 239 6.4 27.4 0.00 2.69 2.69 69 1006.1
20260507164632 14 242 8.0 27.4 0.00 2.69 2.69 69 1006.0
20260507164532 14 241 6.4 27.4 0.00 2.69 2.69 69 1006.0
20260507164410 14 245 9.7 27.4 0.00 2.69 2.69 70 1006.0
20260507164310 14 238 11.3 25.7 0.00 2.69 2.69 70 1005.9
20260507164210 14 238 11.3 25.7 0.00 2.69 2.69 70 1006.0
20260507164110 14 243 8.0 25.7 0.00 2.69 2.69 70 1006.0
20260507164011 14 244 8.0 25.7 0.00 2.69 2.69 70 1006.1
20260507163910 14 249 9.7 25.7 0.00 2.69 2.69 70 1006.1
20260507163811 14 247 9.7 25.7 0.00 2.69 2.69 70 1006.2
20260507163710 14 256 9.7 25.7 0.00 2.69 2.69 70 1006.3
20260507163610 14 260 14.5 25.7 0.00 2.69 2.69 70 1006.2
20260507163532 14 259 8.0 20.9 0.00 2.69 2.69 70 1006.2
20260507163410 14 255 12.9 20.9 0.00 2.69 2.69 70 1006.0
20260507163310 14 258 11.3 20.9 0.00 2.69 2.69 71 1006.1
20260507163210 14 251 6.4 20.9 0.00 2.69 2.69 71 1006.3
20260507163132 14 247 4.8 20.9 0.00 2.69 2.69 71 1006.1
20260507163011 14 251 8.0 20.9 0.00 2.69 2.69 71 1006.2
20260507162932 14 250 8.0 20.9 0.00 2.69 2.69 71 1006.2
20260507162810 14 262 11.3 20.9 0.00 2.69 2.69 72 1006.0
20260507162711 14 264 6.4 17.7 0.00 2.69 2.69 72 1006.0
20260507162611 14 255 11.3 17.7 0.00 2.69 2.69 72 1005.9
20260507162510 14 259 6.4 17.7 0.00 2.69 2.69 72 1005.9
20260507162410 14 256 6.4 17.7 0.00 2.69 2.69 73 1005.7
20260507162310 14 255 9.7 17.7 0.00 2.69 2.69 73 1005.7
20260507162232 14 256 6.4 17.7 0.00 2.69 2.69 73 1005.6
20260507162132 14 260 8.0 17.7 0.00 2.69 2.69 73 1005.6
20260507162010 14 253 6.4 17.7 0.00 2.69 2.69 74 1005.4
20260507161910 14 254 6.4 20.9 0.00 2.69 2.69 74 1005.3
20260507161810 14 250 6.4 20.9 0.00 2.69 2.69 74 1005.5
20260507161710 14 252 9.7 20.9 0.00 2.69 2.69 74 1005.5
20260507161611 14 249 11.3 20.9 0.00 2.69 2.69 74 1005.4
20260507161511 14 248 6.4 20.9 0.00 2.69 2.69 74 1005.4
20260507161432 13 244 4.8 20.9 0.00 2.69 2.69 74 1005.5
20260507161311 13 239 6.4 20.9 0.00 2.69 2.69 74 1005.3
20260507161210 13 231 6.4 20.9 0.00 2.69 2.69 74 1005.4
20260507161111 13 232 6.4 20.9 0.00 2.69 2.69 74 1005.4
20260507161032 13 231 6.4 20.9 0.00 2.69 2.69 74 1005.5
20260507160911 13 231 9.7 20.9 0.00 2.69 2.69 73 1005.3
20260507160811 13 231 9.7 22.5 0.00 2.69 2.69 73 1005.5
20260507160711 13 235 6.4 24.1 0.00 2.69 2.69 73 1005.3
20260507160611 13 244 6.4 24.1 0.00 2.69 2.69 73 1005.1
20260507160510 13 243 6.4 24.1 0.00 2.69 2.69 73 1005.1
20260507160411 13 248 6.4 24.1 0.00 2.69 2.69 73 1005.0
20260507160311 13 243 6.4 24.1 0.00 2.69 2.69 73 1005.1
20260507160212 13 244 3.2 24.1 0.00 2.69 2.69 72 1004.7
20260507160111 13 236 9.7 24.1 0.00 2.69 2.69 72 1005.0
20260507160011 13 236 8.0 24.1 0.00 2.69 2.69 72 1004.9
20260507155911 13 233 11.3 24.1 0.00 2.69 2.69 71 1004.9
20260507155831 13 231 9.7 24.1 0.00 2.69 2.69 71 1004.9
20260507155710 13 222 4.8 17.7 0.00 2.69 2.69 71 1004.9
20260507155610 13 216 6.4 17.7 0.00 2.69 2.69 71 1004.8
20260507155532 13 211 8.0 17.7 0.00 2.69 2.69 71 1004.6
20260507155410 13 211 8.0 17.7 0.00 2.69 2.69 71 1004.5
20260507155310 14 217 9.7 17.7 0.00 2.69 2.69 70 1004.6
20260507155232 14 217 6.4 17.7 0.00 2.69 2.69 70 1004.6
20260507155131 14 227 8.0 20.9 0.00 2.69 2.69 70 1004.5
20260507155010 14 221 6.4 20.9 0.00 2.69 2.69 70 1004.5
20260507154910 14 219 6.4 20.9 0.00 2.69 2.69 70 1004.4
20260507154810 14 220 8.0 20.9 0.00 2.69 2.69 69 1004.5
20260507154710 14 216 9.7 20.9 0.00 2.69 2.69 70 1004.6
20260507154611 14 214 9.7 20.9 0.00 2.69 2.69 69 1004.5
20260507154510 14 213 6.4 20.9 0.00 2.69 2.69 69 1004.8
20260507154410 14 210 6.4 20.9 0.00 2.69 2.69 69 1005.0
20260507154310 14 213 9.7 20.9 0.00 2.69 2.69 69 1005.1
20260507154211 14 211 8.0 24.1 0.00 2.69 2.69 69 1005.0
20260507154110 14 202 6.4 24.1 0.00 2.69 2.69 69 1005.2
20260507154032 14 206 9.7 24.1 0.00 2.69 2.69 69 1005.1
20260507153910 14 209 8.0 24.1 0.00 2.69 2.69 69 1005.4
20260507153810 14 207 6.4 24.1 0.00 2.69 2.69 69 1005.4
20260507153732 14 212 6.4 24.1 0.00 2.69 2.69 69 1005.4
20260507153610 14 229 8.0 24.1 0.00 2.69 2.69 69 1005.4
20260507153510 14 237 8.0 24.1 0.00 2.69 2.69 69 1005.7
20260507153410 14 244 11.3 24.1 0.00 2.69 2.69 69 1005.7
20260507153310 14 233 8.0 24.1 0.00 2.69 2.69 69 1005.7
20260507153232 14 234 16.1 24.1 0.00 2.69 2.69 69 1005.7
20260507153110 14 250 9.7 17.7 0.00 2.69 2.69 69 1005.9
20260507153033 14 248 6.4 17.7 0.00 2.69 2.69 69 1005.9
20260507152910 14 240 4.8 17.7 0.00 2.69 2.69 69 1006.2
20260507152832 14 245 4.8 17.7 0.00 2.69 2.69 69 1006.3
20260507152710 14 233 6.4 17.7 0.00 2.69 2.69 69 1006.4
20260507152632 14 230 6.4 17.7 0.00 2.69 2.69 69 1006.6
20260507152511 14 223 8.0 17.7 0.00 2.69 2.69 69 1006.9
20260507152411 14 219 4.8 17.7 0.00 2.69 2.69 69 1006.8
20260507152311 14 220 6.4 17.7 0.00 2.69 2.69 69 1006.6
20260507152211 14 228 8.0 17.7 0.00 2.69 2.69 69 1006.9
20260507152110 14 220 6.4 17.7 0.00 2.69 2.69 70 1007.0
20260507152010 14 226 6.4 17.7 0.00 2.69 2.69 70 1006.8
20260507151910 14 232 9.7 17.7 0.00 2.69 2.69 70 1006.9
20260507151810 14 227 4.8 17.7 0.00 2.69 2.69 70 1007.1
20260507151732 14 229 4.8 17.7 0.00 2.69 2.69 70 1007.1
20260507151611 14 240 6.4 17.7 0.00 2.69 2.69 70 1007.1
20260507151511 14 240 9.7 17.7 0.00 2.69 2.69 70 1007.1
20260507151410 14 243 8.0 17.7 0.00 2.69 2.69 71 1007.3
20260507151310 14 244 8.0 17.7 0.00 2.69 2.69 71 1007.2
20260507151211 14 245 4.8 17.7 0.00 2.69 2.69 71 1007.3
20260507151111 14 242 6.4 17.7 0.00 2.69 2.69 72 1007.2
20260507151010 14 252 6.4 17.7 0.00 2.69 2.69 72 1007.4
20260507150911 14 262 6.4 17.7 0.00 2.69 2.69 72 1007.3
20260507150810 14 268 6.4 17.7 0.00 2.69 2.69 72 1007.5
20260507150711 14 265 6.4 17.7 0.00 2.69 2.69 72 1007.5
20260507150610 14 252 6.4 17.7 0.00 2.69 2.69 72 1007.6
20260507150531 14 252 6.4 17.7 0.00 2.69 2.69 72 1007.6
20260507150410 14 251 9.7 17.7 0.00 2.69 2.69 72 1007.8
20260507150332 14 252 6.4 17.7 0.00 2.69 2.69 72 1007.7
20260507150210 14 256 9.7 17.7 0.00 2.69 2.69 73 1007.8
20260507150110 14 264 6.4 17.7 0.00 2.69 2.69 73 1007.8
20260507150011 14 254 11.3 17.7 0.00 2.69 2.69 73 1007.8
20260507145910 14 248 8.0 17.7 0.00 2.69 2.69 73 1007.7
20260507145810 14 247 4.8 17.7 0.00 2.69 2.69 74 1007.6
20260507145710 14 248 11.3 17.7 0.00 2.69 2.69 74 1007.7
20260507145610 14 248 4.8 17.7 0.00 2.69 2.69 74 1007.6
20260507145510 14 254 4.8 17.7 0.00 2.69 2.69 74 1007.5
20260507145411 14 252 6.4 17.7 0.00 2.69 2.69 74 1007.6
20260507145310 14 248 4.8 17.7 0.00 2.69 2.69 74 1007.8
20260507145211 14 244 8.0 17.7 0.00 2.69 2.69 74 1007.6
20260507145110 14 233 8.0 17.7 0.00 2.69 2.69 74 1007.7
20260507145010 14 233 9.7 17.7 0.00 2.69 2.69 73 1007.7
20260507144910 14 229 9.7 17.7 0.00 2.69 2.69 73 1007.5
20260507144810 14 229 8.0 17.7 0.00 2.69 2.69 73 1007.5
20260507144710 14 221 8.0 20.9 0.00 2.69 2.69 73 1007.5
20260507144632 14 223 6.4 20.9 0.00 2.69 2.69 72 1007.3
20260507144510 14 208 4.8 20.9 0.00 2.69 2.69 72 1007.2
20260507144410 14 204 8.0 24.1 0.00 2.69 2.69 71 1006.8
20260507144310 14 203 9.7 24.1 0.00 2.69 2.69 71 1006.8
20260507144210 14 205 4.8 27.4 0.00 2.69 2.69 71 1006.6
20260507144110 14 209 4.8 27.4 0.00 2.69 2.69 71 1006.6
20260507144010 14 205 8.0 27.4 0.00 2.69 2.69 71 1006.5
20260507143910 14 202 9.7 27.4 0.00 2.69 2.69 70 1006.2
20260507143832 14 203 11.3 27.4 0.00 2.69 2.69 70 1006.2
20260507143710 14 202 11.3 27.4 0.00 2.69 2.69 70 1005.9
20260507143610 14 202 8.0 27.4 0.00 2.69 2.69 70 1005.9
20260507143510 14 210 11.3 27.4 0.00 2.69 2.69 70 1005.7
20260507143410 14 218 14.5 27.4 0.00 2.69 2.69 70 1005.6
20260507143311 14 219 14.5 27.4 0.00 2.69 2.69 70 1005.6
20260507143210 14 219 12.9 27.4 0.00 2.69 2.69 70 1005.6
20260507143110 14 221 12.9 25.7 0.00 2.69 2.69 70 1005.6
20260507143011 14 222 12.9 25.7 0.00 2.69 2.69 70 1005.4
20260507142910 14 225 14.5 25.7 0.00 2.69 2.69 70 1005.7
20260507142810 14 232 12.9 25.7 0.00 2.69 2.69 71 1005.7
20260507142710 14 232 11.3 25.7 0.00 2.69 2.69 71 1006.0
20260507142610 14 227 8.0 25.7 0.00 2.69 2.69 71 1005.8
20260507142510 14 222 11.3 25.7 0.00 2.69 2.69 71 1006.0
20260507142410 14 215 11.3 25.7 0.00 2.69 2.69 71 1005.8
20260507142310 14 209 12.9 25.7 0.00 2.69 2.69 71 1005.9
20260507142232 14 207 12.9 25.7 0.00 2.69 2.69 72 1005.8
20260507142132 14 201 12.9 25.7 0.00 2.69 2.69 72 1005.8
20260507142011 14 208 12.9 25.7 0.00 2.69 2.69 71 1005.7
20260507141910 14 200 12.9 25.7 0.00 2.69 2.69 72 1005.5
20260507141810 14 195 11.3 25.7 0.00 2.69 2.69 71 1005.3
20260507141710 14 199 16.1 25.7 0.00 2.69 2.69 71 1005.5
20260507141610 14 207 9.7 24.1 0.00 2.69 2.69 71 1005.7
20260507141510 14 214 9.7 27.4 0.00 2.69 2.69 71 1005.9
20260507141410 14 213 9.7 27.4 0.00 2.69 2.69 71 1006.2
20260507141310 14 216 9.7 27.4 0.00 2.69 2.69 71 1006.2
20260507141210 14 218 11.3 27.4 0.00 2.69 2.69 71 1006.1
20260507141110 15 213 8.0 27.4 0.00 2.69 2.69 71 1006.2
20260507141010 15 196 12.9 27.4 0.00 2.69 2.69 70 1006.1
20260507140911 15 195 9.7 27.4 0.00 2.69 2.69 70 1006.0
20260507140810 15 203 8.0 27.4 0.00 2.69 2.69 70 1005.8
20260507140710 15 192 8.0 29.0 0.00 2.69 2.69 70 1005.7
20260507140610 15 182 11.3 29.0 0.00 2.69 2.69 70 1005.6
20260507140510 15 179 12.9 29.0 0.00 2.69 2.69 70 1005.6
20260507140410 15 182 16.1 29.0 0.00 2.69 2.69 71 1005.5
20260507140310 15 189 6.4 29.0 0.00 2.69 2.69 71 1005.6
20260507140232 15 192 11.3 29.0 0.00 2.69 2.69 71 1005.5
20260507140132 15 201 12.9 29.0 0.00 2.69 2.69 71 1005.6
20260507140011 15 213 14.5 29.0 0.00 2.69 2.69 71 1005.7
20260507135910 15 214 11.3 29.0 0.00 2.69 2.69 71 1005.7
20260507135810 15 199 17.7 29.0 0.00 2.69 2.69 71 1005.7
20260507135710 15 201 6.4 25.7 0.00 2.69 2.69 71 1005.9
20260507135610 15 204 12.9 25.7 0.00 2.69 2.69 72 1005.7
20260507135510 15 204 9.7 25.7 0.00 2.69 2.69 72 1005.8
20260507135410 15 196 11.3 25.7 0.00 2.69 2.69 72 1005.7
20260507135310 15 193 9.7 29.0 0.00 2.69 2.69 72 1005.8
20260507135232 15 192 12.9 29.0 0.00 2.69 2.69 72 1005.5
20260507135110 15 187 11.3 29.0 0.00 2.69 2.69 73 1005.5
20260507135010 15 190 11.3 29.0 0.00 2.69 2.69 73 1005.5
20260507134910 15 195 8.0 29.0 0.00 2.69 2.69 73 1005.4
20260507134810 15 197 14.5 29.0 0.00 2.69 2.69 73 1005.4
20260507134710 15 194 9.7 29.0 0.00 2.69 2.69 73 1005.2
20260507134610 15 194 12.9 29.0 0.00 2.69 2.69 73 1005.3
20260507134510 15 194 8.0 29.0 0.00 2.69 2.69 73 1005.1
20260507134431 15 198 11.3 29.0 0.00 2.69 2.69 73 1005.1
20260507134310 15 200 17.7 29.0 0.00 2.69 2.69 73 1005.2
20260507134210 15 196 9.7 27.4 0.00 2.69 2.69 73 1005.1
20260507134110 15 197 9.7 27.4 0.00 2.69 2.69 73 1005.0
20260507134010 15 198 17.7 27.4 0.00 2.69 2.69 73 1005.1
20260507133910 15 199 14.5 27.4 0.00 2.69 2.69 73 1005.0
20260507133831 15 202 12.9 27.4 0.00 2.69 2.69 74 1005.1
20260507133710 15 206 11.3 27.4 0.00 2.69 2.69 74 1005.1
20260507133610 15 205 12.9 27.4 0.00 2.69 2.69 74 1005.3
20260507133510 15 200 12.9 27.4 0.00 2.69 2.69 74 1005.2
20260507133410 15 195 12.9 24.1 0.00 2.69 2.69 74 1005.4
20260507133310 15 196 12.9 27.4 0.00 2.69 2.69 74 1005.3
20260507133210 15 193 12.9 27.4 0.00 2.69 2.69 74 1005.4
20260507133110 15 192 12.9 27.4 0.00 2.69 2.69 75 1005.6
20260507133011 15 190 6.4 27.4 0.00 2.69 2.69 75 1005.6
20260507132911 15 189 6.4 27.4 0.00 2.69 2.69 75 1005.5
20260507132810 15 189 6.4 27.4 0.00 2.69 2.69 75 1005.6
20260507132731 15 192 12.9 27.4 0.00 2.69 2.69 75 1005.7
20260507132610 15 191 12.9 27.4 0.00 2.69 2.69 75 1005.6
20260507132510 14 193 9.7 27.4 0.00 2.69 2.69 75 1005.7
20260507132432 14 191 6.4 27.4 0.00 2.69 2.69 75 1005.5
20260507132310 14 190 14.5 27.4 0.00 2.69 2.69 75 1005.7
20260507132211 14 196 14.5 27.4 0.00 2.69 2.69 75 1005.6
20260507132110 14 204 11.3 20.9 0.00 2.69 2.69 75 1005.6
20260507132032 14 210 12.9 25.7 0.00 2.69 2.69 75 1005.7
20260507131910 15 218 6.4 25.7 0.00 2.69 2.69 75 1005.8
20260507131810 15 222 9.7 25.7 0.00 2.69 2.69 75 1005.9
20260507131710 15 220 9.7 25.7 0.00 2.69 2.69 75 1005.9
20260507131610 15 228 6.4 25.7 0.00 2.69 2.69 75 1005.9
20260507131510 15 238 9.7 25.7 0.00 2.69 2.69 75 1006.0
20260507131411 15 243 6.4 25.7 0.00 2.69 2.69 75 1006.1
20260507131310 15 244 12.9 25.7 0.00 2.69 2.69 75 1006.2
20260507131231 15 248 12.9 25.7 0.00 2.69 2.69 75 1006.3
20260507131111 15 241 12.9 25.7 0.00 2.69 2.69 75 1006.0
20260507131032 15 236 14.5 25.7 0.00 2.69 2.69 75 1006.2
20260507130910 15 230 6.4 17.7 0.00 2.69 2.69 76 1006.3
20260507130810 15 227 8.0 17.7 0.00 2.69 2.69 76 1006.5
20260507130711 15 231 3.2 17.7 0.00 2.69 2.69 76 1006.4
20260507130610 15 235 11.3 17.7 0.00 2.69 2.69 76 1006.3
20260507130534 15 234 12.9 17.7 0.00 2.69 2.69 76 1006.3
20260507130410 15 240 6.4 17.7 0.00 2.69 2.69 76 1006.4
20260507130310 15 234 8.0 17.7 0.00 2.69 2.69 76 1006.4
20260507130210 15 227 6.4 17.7 0.00 2.69 2.69 77 1006.4
20260507130110 15 220 6.4 17.7 0.00 2.69 2.69 77 1006.4
20260507130011 15 221 6.4 17.7 0.00 2.69 2.69 77 1006.2
20260507125910 15 222 3.2 17.7 0.00 2.69 2.69 78 1006.2
20260507125810 15 230 3.2 17.7 0.00 2.69 2.69 78 1006.0
20260507125732 15 231 3.2 17.7 0.00 2.69 2.69 78 1006.0
20260507125610 15 219 6.4 17.7 0.00 2.69 2.69 78 1006.0
20260507125510 15 217 8.0 17.7 0.00 2.69 2.69 77 1005.7
20260507125410 15 219 12.9 17.7 0.00 2.69 2.69 78 1005.8
20260507125310 15 227 6.4 17.7 0.00 2.69 2.69 78 1005.8
20260507125210 15 235 9.7 17.7 0.00 2.69 2.69 78 1005.9
20260507125132 15 244 6.4 14.5 0.00 2.69 2.69 78 1005.7
20260507125011 15 247 3.2 17.7 0.00 2.69 2.69 78 1005.6
20260507124911 15 244 4.8 17.7 0.00 2.69 2.69 78 1005.8
20260507124810 15 235 6.4 17.7 0.00 2.69 2.69 78 1005.6
20260507124710 15 236 6.4 17.7 0.00 2.69 2.69 78 1005.9
20260507124610 15 234 6.4 25.7 0.00 2.69 2.69 78 1005.5
20260507124510 15 226 6.4 25.7 0.00 2.69 2.69 78 1005.5
20260507124410 15 220 6.4 25.7 0.00 2.69 2.69 78 1005.4
20260507124310 15 214 6.4 25.7 0.00 2.69 2.69 78 1005.7
20260507124211 15 210 8.0 25.7 0.00 2.69 2.69 77 1005.3
20260507124110 15 206 11.3 25.7 0.00 2.69 2.69 77 1005.4
20260507124010 15 203 6.4 25.7 0.00 2.69 2.69 77 1005.3
20260507123911 15 203 9.7 25.7 0.00 2.69 2.69 77 1005.3
20260507123810 15 203 8.0 25.7 0.00 2.69 2.69 77 1005.5
20260507123732 15 201 8.0 25.7 0.00 2.69 2.69 77 1005.5
20260507123610 15 195 17.7 25.7 0.00 2.69 2.69 76 1005.3
20260507123510 15 194 8.0 24.1 0.00 2.69 2.69 77 1005.2
20260507123431 15 193 8.0 24.1 0.00 2.69 2.69 76 1005.2
20260507123310 15 192 9.7 24.1 0.00 2.69 2.69 76 1004.9
20260507123210 15 184 12.9 24.1 0.00 2.69 2.69 76 1005.1
20260507123110 15 182 14.5 24.1 0.00 2.69 2.69 76 1004.9
20260507123011 15 178 12.9 24.1 0.00 2.69 2.69 76 1004.6
20260507122910 15 176 14.5 24.1 0.00 2.69 2.69 76 1004.8
20260507122810 15 173 14.5 25.7 0.00 2.69 2.69 76 1004.7
20260507122710 15 174 12.9 25.7 0.00 2.69 2.69 76 1004.4
20260507122611 15 176 9.7 25.7 0.00 2.69 2.69 76 1004.8
20260507122510 15 176 11.3 25.7 0.00 2.69 2.69 76 1004.8
20260507122410 15 177 12.9 25.7 0.00 2.69 2.69 76 1004.8
20260507122310 15 175 12.9 29.0 0.00 2.69 2.69 76 1004.6
20260507122232 15 178 12.9 29.0 0.00 2.69 2.69 76 1004.4
20260507122110 15 181 12.9 29.0 0.00 2.69 2.69 77 1004.2
20260507122010 15 185 12.9 29.0 0.00 2.69 2.69 77 1004.3
20260507121932 15 184 9.7 29.0 0.00 2.69 2.69 77 1004.3
20260507121810 15 183 12.9 29.0 0.00 2.69 2.69 77 1004.4
20260507121732 15 181 12.9 29.0 0.00 2.69 2.69 77 1004.4
20260507121610 15 179 14.5 29.0 0.00 2.69 2.69 77 1004.2
20260507121510 15 181 12.9 29.0 0.00 2.69 2.69 77 1004.4
20260507121410 15 183 20.9 29.0 0.00 2.69 2.69 78 1004.1
20260507121310 15 189 11.3 27.4 0.00 2.69 2.69 78 1004.3
20260507121231 15 189 11.3 27.4 0.00 2.69 2.69 78 1003.9
20260507121110 15 189 12.9 27.4 0.00 2.69 2.69 78 1004.0
20260507121010 15 189 14.5 27.4 0.00 2.69 2.69 78 1004.0
20260507120910 15 195 12.9 27.4 0.00 2.69 2.69 79 1004.0
20260507120832 15 197 11.3 27.4 0.00 2.69 2.69 79 1004.4
20260507120710 15 201 8.0 27.4 0.00 2.69 2.69 79 1004.4
20260507120632 15 201 12.9 27.4 0.00 2.69 2.69 79 1004.5
20260507120510 15 201 12.9 24.1 0.00 2.69 2.69 79 1004.4
20260507120410 15 197 11.3 17.7 0.00 2.69 2.69 79 1004.5
20260507120310 15 192 11.3 17.7 0.00 2.69 2.69 79 1004.3
20260507120210 15 192 12.9 17.7 0.00 2.69 2.69 78 1004.6
20260507120110 15 190 8.0 20.9 0.00 2.69 2.69 78 1004.6
20260507120011 15 191 11.3 20.9 0.00 2.69 2.69 78 1004.5
20260507115910 15 185 11.3 20.9 0.00 2.69 2.69 78 1004.7
20260507115810 15 185 9.7 20.9 0.00 2.69 2.69 78 1004.4
20260507115710 15 187 9.7 20.9 0.00 2.69 2.69 78 1004.5
20260507115610 15 194 8.0 20.9 0.00 2.69 2.69 78 1004.4
20260507115510 15 197 12.9 20.9 0.00 2.69 2.69 78 1004.3
20260507115410 15 202 9.7 20.9 0.00 2.69 2.69 78 1004.4
20260507115332 15 203 9.7 20.9 0.00 2.69 2.69 78 1004.4
20260507115211 15 207 6.4 20.9 0.00 2.69 2.69 77 1004.5
20260507115110 15 205 12.9 24.1 0.00 2.69 2.69 77 1004.8
20260507115010 15 202 9.7 24.1 0.00 2.69 2.69 78 1005.3
20260507114910 15 202 6.4 24.1 0.00 2.69 2.69 78 1005.4
20260507114810 15 195 6.4 24.1 0.00 2.69 2.69 78 1005.3
20260507114710 15 192 8.0 24.1 0.00 2.69 2.69 78 1005.5
20260507114610 15 186 6.4 24.1 0.00 2.69 2.69 78 1005.5
20260507114510 15 182 9.7 24.1 0.00 2.69 2.69 78 1005.4
20260507114410 15 174 11.3 24.1 0.00 2.69 2.69 78 1005.2
20260507114310 15 172 4.8 24.1 0.00 2.69 2.69 79 1004.9
20260507114210 15 170 6.4 24.1 0.00 2.69 2.69 79 1004.5
20260507114110 15 172 12.9 24.1 0.00 2.69 2.69 79 1004.4
20260507114010 15 170 8.0 22.5 0.00 2.69 2.69 79 1004.2
20260507113932 15 168 9.7 22.5 0.00 2.69 2.69 79 1004.0
20260507113810 15 171 4.8 22.5 0.00 2.69 2.69 80 1003.9
20260507113710 15 172 9.7 22.5 0.00 2.69 2.69 80 1003.8
20260507113610 15 169 9.7 22.5 0.00 2.69 2.69 80 1003.8
20260507113510 15 167 8.0 20.9 0.00 2.69 2.69 80 1003.7
20260507113410 15 168 12.9 20.9 0.00 2.69 2.69 80 1003.7
20260507113310 15 166 9.7 20.9 0.00 2.69 2.69 80 1003.7
20260507113210 15 167 11.3 20.9 0.00 2.69 2.69 80 1003.5
20260507113110 15 169 12.9 20.9 0.00 2.69 2.69 79 1003.6
20260507113011 16 170 11.3 20.9 0.00 2.69 2.69 79 1003.9
20260507112910 16 173 16.1 20.9 0.00 2.69 2.69 79 1003.9
20260507112810 16 171 9.7 20.9 0.00 2.69 2.69 79 1003.8
20260507112710 16 174 8.0 20.9 0.00 2.69 2.69 78 1003.9
20260507112610 16 176 12.9 20.9 0.00 2.69 2.69 78 1004.1
20260507112510 16 178 8.0 17.7 0.00 2.69 2.69 78 1004.4
20260507112410 16 176 6.4 17.7 0.00 2.69 2.69 78 1004.4
20260507112310 16 179 6.4 17.7 0.00 2.69 2.69 78 1004.5
20260507112210 16 181 11.3 17.7 0.00 2.69 2.69 78 1004.4
20260507112110 16 183 8.0 17.7 0.00 2.69 2.69 79 1004.4
20260507112010 16 191 6.4 17.7 0.00 2.69 2.69 79 1004.6
20260507111910 16 197 9.7 17.7 0.00 2.69 2.69 79 1004.3
20260507111810 16 196 8.0 27.4 0.00 2.69 2.69 79 1004.3
20260507111710 16 194 6.4 27.4 0.00 2.69 2.69 79 1004.3
20260507111610 16 193 6.4 27.4 0.00 2.69 2.69 79 1004.2
20260507111510 16 189 6.4 29.0 0.00 2.69 2.69 79 1004.1
20260507111410 16 189 8.0 29.0 0.00 2.69 2.69 79 1004.1
20260507111312 16 184 9.7 29.0 0.00 2.69 2.69 79 1004.3
20260507111210 16 184 9.7 29.0 0.00 2.69 2.69 79 1004.3
20260507111110 16 181 8.0 29.0 0.00 2.69 2.69 79 1004.4
20260507111010 16 182 9.7 35.4 0.00 2.69 2.69 79 1004.1
20260507110911 16 182 8.0 37.0 0.00 2.69 2.69 79 1004.0
20260507110810 16 186 16.1 37.0 0.00 2.69 2.69 79 1003.8
20260507110710 16 179 12.9 37.0 0.00 2.69 2.69 79 1003.8
20260507110610 16 175 17.7 37.0 0.00 2.69 2.69 80 1003.0
20260507110510 16 173 17.7 37.0 0.00 2.69 2.69 81 1003.0
20260507110410 16 171 12.9 37.0 0.00 2.69 2.69 81 1002.7
20260507110310 16 171 14.5 37.0 0.00 2.69 2.69 81 1002.6
20260507110210 16 167 17.7 37.0 0.00 2.69 2.69 81 1002.0
20260507110110 16 170 20.9 37.0 0.00 2.69 2.69 81 1002.0
20260507110011 16 166 19.3 37.0 0.00 2.69 2.69 81 1001.8
20260507105910 16 165 22.5 37.0 0.00 2.69 2.69 81 1001.5
20260507105810 16 165 17.7 37.0 0.00 2.69 2.69 81 1001.5
20260507105710 16 170 17.7 37.0 0.00 2.69 2.69 81 1001.6
20260507105610 16 174 20.9 37.0 0.00 2.69 2.69 81 1001.6
20260507105532 16 179 19.3 37.0 0.00 2.69 2.69 81 1001.5
20260507105410 16 184 16.1 37.0 0.00 2.69 2.69 81 1001.8
20260507105310 16 185 17.7 37.0 0.00 2.69 2.69 81 1002.0
20260507105210 16 187 17.7 37.0 0.00 2.69 2.69 81 1001.9
20260507105131 16 190 24.1 37.0 0.00 2.69 2.69 81 1002.1
20260507105010 16 188 27.4 40.2 0.00 2.69 2.69 82 1002.6
20260507104910 16 183 17.7 40.2 0.00 2.69 2.69 83 1002.5
20260507104810 16 177 17.7 40.2 0.00 2.69 2.69 83 1002.5
20260507104710 16 177 20.9 40.2 0.00 2.69 2.69 83 1002.6
20260507104610 16 176 20.9 40.2 0.00 2.69 2.69 84 1002.6
20260507104510 16 172 17.7 40.2 0.00 2.69 2.69 85 1002.7
20260507104410 16 176 14.5 40.2 0.00 2.69 2.69 85 1002.6
20260507104310 16 175 16.1 40.2 0.00 2.69 2.69 85 1002.5
20260507104210 16 180 24.1 40.2 0.00 2.69 2.69 86 1002.3
20260507104110 16 179 22.5 40.2 0.00 2.69 2.69 86 1002.3
20260507104010 16 183 14.5 37.0 0.00 2.69 2.69 87 1002.1
20260507103910 16 187 14.5 43.5 0.00 2.69 2.69 87 1002.1
20260507103810 16 190 17.7 43.5 0.00 2.69 2.69 87 1001.7
20260507103731 16 192 17.7 43.5 0.00 2.69 2.69 87 1001.7
20260507103610 16 193 20.9 43.5 0.00 2.69 2.69 87 1001.3
20260507103510 16 195 17.7 43.5 0.00 2.69 2.69 88 1001.5
20260507103410 16 194 22.5 43.5 0.00 2.69 2.69 88 1001.0
20260507103310 16 196 24.1 43.5 0.00 2.69 2.69 88 1000.8
20260507103231 16 194 22.5 43.5 0.00 2.69 2.69 88 1000.6
20260507103110 16 196 19.3 57.9 0.00 2.69 2.69 89 1000.6
20260507103033 16 198 24.1 57.9 0.00 2.69 2.69 89 1000.6
20260507102910 16 198 22.5 57.9 0.00 2.69 2.69 89 1000.1
20260507102810 17 196 24.1 57.9 0.00 2.69 2.69 90 1000.1
20260507102732 17 195 24.1 57.9 0.00 2.69 2.69 90 1000.1
20260507102610 17 194 25.7 57.9 0.00 2.69 2.69 90 1000.0
20260507102510 17 194 24.1 57.9 0.00 2.69 2.69 90 999.9
20260507102410 17 193 24.1 57.9 0.00 2.69 2.69 90 999.9
20260507102310 17 197 25.7 57.9 0.00 2.69 2.69 90 1000.0
20260507102210 17 195 24.1 57.9 0.00 2.69 2.69 90 999.8
20260507102110 17 195 32.2 57.9 0.00 2.69 2.69 90 999.9
20260507102010 17 193 24.1 43.5 0.00 2.69 2.69 90 1000.0
20260507101910 17 193 24.1 46.7 0.00 2.69 2.69 90 1000.1
20260507101831 17 194 24.1 46.7 0.00 2.69 2.69 90 1000.1
20260507101710 17 196 24.1 46.7 0.00 2.69 2.69 90 1000.2
20260507101610 17 198 24.1 46.7 0.00 2.69 2.69 90 1000.5
20260507101510 17 198 20.9 46.7 0.00 2.69 2.69 90 1000.4
20260507101410 17 197 27.4 46.7 0.00 2.69 2.69 90 1000.8
20260507101310 17 195 12.9 46.7 0.00 2.69 2.69 90 1001.0
20260507101210 17 198 25.7 46.7 0.00 2.69 2.69 90 1001.0
20260507101110 17 194 24.1 46.7 0.00 2.69 2.69 90 1001.2
20260507101010 17 188 24.1 46.7 0.00 2.69 2.69 90 1001.1
20260507100910 17 187 27.4 46.7 0.00 2.69 2.69 90 1001.1
20260507100810 17 186 22.5 46.7 0.00 2.69 2.69 90 1001.2
20260507100710 17 185 27.4 46.7 0.00 2.69 2.69 90 1001.4
20260507100632 17 185 24.1 46.7 0.00 2.69 2.69 90 1001.3
20260507100510 17 187 32.2 46.7 0.00 2.69 2.69 90 1001.4
20260507100410 17 187 24.1 40.2 0.00 2.69 2.69 90 1001.4
20260507100332 17 185 24.1 38.6 0.00 2.69 2.69 90 1001.4
20260507100231 17 181 24.1 38.6 0.00 2.69 2.69 90 1001.6
20260507100110 17 190 22.5 38.6 0.00 2.69 2.69 90 1001.8
20260507100011 17 200 20.9 35.4 0.00 2.69 2.69 90 1001.9
20260507095910 17 206 19.3 38.6 0.00 2.69 2.69 90 1001.8
20260507095832 17 206 17.7 38.6 0.00 2.69 2.69 90 1001.8
20260507095710 17 206 24.1 38.6 0.00 2.69 2.69 90 1002.1
20260507095631 17 204 24.1 38.6 0.00 2.69 2.69 90 1001.9
20260507095510 17 201 14.5 38.6 0.00 2.69 2.69 90 1002.1
20260507095432 17 200 17.7 38.6 0.00 2.69 2.69 90 1002.1
20260507095310 17 202 22.5 38.6 0.00 2.69 2.69 90 1002.2
20260507095210 17 201 17.7 38.6 0.00 2.69 2.69 90 1002.0
20260507095110 17 192 16.1 38.6 0.00 2.69 2.69 90 1002.0
20260507095010 17 183 24.1 43.5 0.00 2.69 2.69 90 1002.1
20260507094910 17 180 25.7 43.5 0.00 2.69 2.69 90 1002.1
20260507094810 17 180 17.7 43.5 0.00 2.69 2.69 91 1001.9
20260507094710 17 179 17.7 43.5 0.00 2.69 2.69 90 1001.9
20260507094610 17 184 14.5 43.5 0.00 2.69 2.69 90 1001.9
20260507094510 17 185 12.9 43.5 0.00 2.69 2.69 90 1001.7
20260507094410 17 188 19.3 43.5 0.00 2.69 2.69 90 1001.7
20260507094310 17 186 17.7 43.5 0.00 2.69 2.69 90 1001.6
20260507094231 17 184 17.7 43.5 0.00 2.69 2.69 90 1001.7
20260507094110 17 184 20.9 43.5 0.00 2.69 2.69 91 1001.7
20260507094010 17 188 20.9 43.5 0.00 2.69 2.69 91 1001.6
20260507093910 17 190 16.1 40.2 0.00 2.69 2.69 91 1001.8
20260507093810 17 190 22.5 40.2 0.00 2.69 2.69 91 1001.6
20260507093731 17 190 22.5 40.2 0.00 2.69 2.69 91 1001.6
20260507093610 17 188 22.5 40.2 0.00 2.69 2.69 91 1001.5
20260507093510 17 187 17.7 40.2 0.00 2.69 2.69 91 1001.6
20260507093410 17 184 22.5 40.2 0.00 2.69 2.69 91 1001.8
20260507093310 17 184 24.1 40.2 0.00 2.69 2.69 91 1001.6
20260507093210 17 184 22.5 38.6 0.00 2.69 2.69 91 1001.7
20260507093110 17 182 17.7 35.4 0.00 2.69 2.69 91 1001.7
20260507093032 17 183 20.9 35.4 0.00 2.69 2.69 91 1001.5
20260507092910 17 182 19.3 35.4 0.00 2.69 2.69 91 1001.6
20260507092810 17 187 14.5 35.4 0.00 2.69 2.69 91 1001.6
20260507092710 17 191 20.9 35.4 0.00 2.69 2.69 91 1001.6
20260507092631 17 189 12.9 35.4 0.00 2.69 2.69 91 1001.7
20260507092510 17 184 19.3 35.4 0.00 2.69 2.69 91 1001.7
20260507092410 17 186 17.7 33.8 0.00 2.69 2.69 91 1001.9
20260507092331 17 187 12.9 33.8 0.00 2.69 2.69 91 1002.2
20260507092231 17 186 14.5 33.8 0.00 2.69 2.69 91 1002.2
20260507092110 17 191 12.9 35.4 0.00 2.69 2.69 91 1002.5
20260507092010 17 186 17.7 35.4 0.00 2.69 2.69 91 1002.5
20260507091910 17 186 16.1 35.4 0.00 2.69 2.69 91 1002.6
20260507091810 17 183 12.9 35.4 0.00 2.69 2.69 91 1002.8
20260507091710 17 178 14.5 35.4 0.00 2.69 2.69 91 1002.6
20260507091610 17 176 12.9 35.4 0.00 2.69 2.69 92 1002.8
20260507091531 17 178 16.1 35.4 0.00 2.69 2.69 92 1002.6
20260507091410 17 181 17.7 35.4 0.00 2.69 2.69 92 1002.4
20260507091310 17 180 14.5 35.4 0.00 2.69 2.69 92 1002.7
20260507091210 17 182 17.7 35.4 0.00 2.69 2.69 92 1002.5
20260507091131 17 182 20.9 32.2 0.00 2.69 2.69 92 1002.6
20260507091010 17 186 16.1 32.2 0.00 2.69 2.69 92 1002.5
20260507090910 17 186 19.3 43.5 0.00 2.69 2.69 93 1002.7
20260507090810 17 182 12.9 43.5 0.00 2.69 2.69 93 1002.6
20260507090710 17 183 14.5 43.5 0.00 2.69 2.69 93 1002.7
20260507090610 17 186 11.3 43.5 0.00 2.69 2.69 93 1002.9
20260507090510 17 185 14.5 43.5 0.00 2.69 2.69 93 1003.2
20260507090410 17 182 12.9 43.5 0.00 2.69 2.69 93 1003.2
20260507090310 17 183 11.3 43.5 0.00 2.69 2.69 94 1003.5
20260507090210 17 186 12.9 43.5 0.00 2.69 2.69 94 1003.4
20260507090110 17 188 12.9 43.5 0.00 2.69 2.69 94 1003.6
20260507090011 17 188 17.7 43.5 0.00 2.69 2.69 95 1003.5
20260507085910 17 187 19.3 43.5 0.00 2.69 2.69 95 1003.7
20260507085810 17 190 9.7 35.4 0.00 2.69 2.69 95 1003.6
20260507085731 17 190 9.7 35.4 0.00 2.69 2.69 95 1003.6
20260507085610 17 194 19.3 35.4 0.00 2.69 2.69 96 1003.7
20260507085510 17 195 12.9 24.1 0.00 2.69 2.69 96 1003.8
20260507085410 17 197 12.9 24.1 0.00 2.69 2.69 96 1003.7
20260507085331 17 197 12.9 24.1 0.00 2.69 2.69 96 1003.7
20260507085210 17 192 12.9 17.7 0.00 2.69 2.69 96 1003.7
20260507085131 17 187 3.2 17.7 0.00 2.69 2.69 96 1003.9
20260507085032 17 191 6.4 17.7 0.00 2.69 2.69 96 1003.8
20260507084910 17 198 8.0 17.7 0.00 2.69 2.69 96 1003.6
20260507084810 17 195 6.4 17.7 0.00 2.69 2.69 97 1003.7
20260507084710 17 194 4.8 17.7 0.00 2.69 2.69 97 1003.9
20260507084610 17 192 11.3 17.7 0.00 2.69 2.69 97 1003.7
20260507084510 17 192 6.4 14.5 0.00 2.69 2.69 97 1003.7
20260507084410 17 192 6.4 14.5 0.00 2.69 2.69 97 1003.5
20260507084331 17 191 6.4 14.5 0.00 2.69 2.69 97 1003.6
20260507084210 17 187 3.2 14.5 0.00 2.69 2.69 97 1003.6
20260507084110 17 183 4.8 14.5 0.00 2.69 2.69 97 1003.7
20260507084010 17 178 4.8 14.5 0.00 2.69 2.69 97 1003.4
20260507083910 17 177 6.4 14.5 0.00 2.69 2.69 97 1003.5
20260507083810 17 173 8.0 14.5 0.00 2.69 2.69 97 1003.5
20260507083710 17 172 6.4 11.3 0.00 2.69 2.69 97 1003.5
20260507083610 17 177 6.4 11.3 0.00 2.69 2.69 97 1003.6
20260507083510 17 177 6.4 11.3 0.00 2.69 2.69 97 1003.7
20260507083410 17 173 4.8 11.3 0.00 2.69 2.69 97 1003.7
20260507083331 17 173 4.8 11.3 0.00 2.69 2.69 97 1003.7
20260507083210 17 178 3.2 11.3 0.00 2.69 2.69 98 1003.5
20260507083110 17 181 3.2 12.9 0.00 2.69 2.69 98 1003.4
20260507083011 17 177 4.8 12.9 0.00 2.69 2.69 98 1003.4
20260507082910 17 173 4.8 14.5 0.00 2.69 2.69 98 1003.2
20260507082810 17 169 6.4 14.5 0.00 2.69 2.69 98 1003.5
20260507082710 17 172 3.2 14.5 0.00 2.69 2.69 98 1003.2
20260507082631 17 175 6.4 14.5 0.00 2.69 2.69 98 1003.0
20260507082510 17 178 3.2 17.7 0.00 2.69 2.69 98 1003.0
20260507082431 17 178 4.8 22.5 0.00 2.69 2.69 98 1002.9
20260507082310 17 179 6.4 22.5 0.00 2.69 2.69 98 1002.8
20260507082210 17 176 4.8 22.5 0.00 2.69 2.69 98 1002.6
20260507082131 17 177 4.8 22.5 0.00 2.69 2.69 98 1002.6
20260507082031 17 181 6.4 22.5 0.00 2.69 2.69 98 1002.7
20260507081910 17 181 8.0 22.5 0.00 2.69 2.69 98 1002.6
20260507081810 17 183 6.4 22.5 0.00 2.69 2.69 98 1002.6
20260507081710 17 181 8.0 22.5 0.00 2.69 2.69 98 1002.7
20260507081610 17 172 6.4 22.5 0.00 2.69 2.69 98 1002.7
20260507081510 18 166 11.3 22.5 0.00 2.69 2.69 98 1002.5
20260507081410 18 162 8.0 22.5 0.00 2.69 2.69 98 1002.4
20260507081310 18 161 9.7 22.5 0.00 2.69 2.69 98 1002.5
20260507081210 18 160 8.0 22.5 0.00 2.69 2.69 99 1002.5
20260507081110 18 155 6.4 22.5 0.00 2.69 2.69 99 1002.5
20260507081010 18 154 8.0 22.5 0.00 2.69 2.69 99 1002.6
20260507080910 18 157 6.4 22.5 0.00 2.69 2.69 99 1002.4
20260507080810 18 158 6.4 22.5 0.00 2.69 2.69 99 1002.3
20260507080710 18 160 4.8 22.5 0.00 2.69 2.69 99 1002.2
20260507080610 18 164 8.0 22.5 0.00 2.69 2.69 99 1002.3
20260507080510 18 165 9.7 22.5 0.00 2.69 2.69 99 1002.6
20260507080410 18 169 11.3 17.7 0.00 2.69 2.69 99 1002.5
20260507080310 18 168 8.0 17.7 0.00 2.69 2.69 99 1002.7
20260507080231 18 170 6.4 17.7 0.00 2.69 2.69 99 1002.9
20260507080110 18 175 6.4 17.7 0.00 2.69 2.69 99 1003.1
20260507080011 18 173 9.7 17.7 0.00 2.69 2.69 99 1003.4
20260507075910 18 166 6.4 11.3 0.00 2.69 2.69 99 1003.2
20260507075810 18 163 3.2 9.7 0.00 2.69 2.69 99 1003.2
20260507075710 18 162 4.8 9.7 0.00 2.69 2.69 99 1002.9
20260507075610 18 157 3.2 11.3 0.00 2.69 2.69 99 1002.9
20260507075510 18 156 4.8 11.3 0.00 2.69 2.69 99 1002.6
20260507075410 18 159 3.2 11.3 0.00 2.69 2.69 99 1002.5
20260507075310 18 159 4.8 12.9 0.00 2.69 2.69 99 1002.7
20260507075210 18 159 4.8 12.9 0.00 2.69 2.69 99 1002.5
20260507075110 18 156 6.4 12.9 0.00 2.69 2.69 99 1002.4
20260507075010 18 155 6.4 14.5 0.00 2.69 2.69 99 1002.4
20260507074910 18 157 4.8 17.7 0.00 2.69 2.69 99 1002.4
20260507074810 18 155 4.8 17.7 0.00 2.69 2.69 99 1002.2
20260507074710 18 157 6.4 17.7 0.00 2.69 2.69 99 1002.2
20260507074610 18 160 8.0 17.7 0.00 2.69 2.69 99 1002.1
20260507074510 18 161 6.4 17.7 0.00 2.69 2.69 99 1002.1
20260507074410 18 159 6.4 17.7 0.00 2.69 2.69 99 1002.2
20260507074310 18 162 6.4 17.7 0.00 2.69 2.69 99 1002.0
20260507074231 18 162 8.0 17.7 0.00 2.69 2.69 99 1002.1
20260507074110 18 166 8.0 17.7 0.00 2.69 2.69 99 1001.9
20260507074010 18 167 8.0 17.7 0.00 2.69 2.69 99 1001.9
20260507073910 18 168 11.3 17.7 0.00 2.69 2.69 99 1002.1
20260507073810 18 168 8.0 14.5 0.00 2.69 2.69 99 1002.0
20260507073731 18 167 8.0 14.5 0.00 2.69 2.69 99 1002.0
20260507073610 18 166 8.0 14.5 0.00 2.69 2.69 99 1002.3
20260507073510 18 163 6.4 12.9 0.00 2.69 2.69 99 1002.2
20260507073431 18 162 6.4 12.9 0.00 2.69 2.69 99 1002.4
20260507073331 18 161 8.0 12.9 0.00 2.69 2.69 99 1002.1
20260507073210 18 159 8.0 12.9 0.00 2.69 2.69 99 1002.0
20260507073131 18 154 6.4 12.9 0.00 2.69 2.69 99 1002.2
20260507073032 18 155 4.8 12.9 0.00 2.69 2.69 99 1002.2
20260507072931 18 155 8.0 12.9 0.00 2.69 2.69 99 1002.3
20260507072811 18 160 6.4 12.9 0.00 2.69 2.69 99 1002.4
20260507072710 18 159 4.8 14.5 0.00 2.69 2.69 99 1002.3
20260507072610 18 159 6.4 14.5 0.00 2.69 2.69 99 1002.3
20260507072510 18 163 4.8 14.5 0.00 2.69 2.69 99 1002.2
20260507072410 18 164 3.2 14.5 0.00 2.69 2.69 99 1002.0
20260507072310 18 163 6.4 14.5 0.00 2.69 2.69 99 1002.1
20260507072231 18 164 6.4 14.5 0.00 2.69 2.69 99 1001.9
20260507072110 18 167 6.4 14.5 0.00 2.69 2.69 99 1002.1
20260507072010 18 165 6.4 14.5 0.00 2.69 2.69 99 1002.0
20260507071910 18 169 6.4 17.7 0.00 2.69 2.69 99 1002.0
20260507071810 18 171 9.7 17.7 0.00 2.69 2.69 99 1002.0
20260507071731 18 172 9.7 17.7 0.00 2.69 2.69 99 1002.0
20260507071610 18 173 8.0 17.7 0.00 2.69 2.69 99 1001.9
20260507071510 18 173 6.4 17.7 0.00 2.69 2.69 99 1001.7
20260507071410 18 172 8.0 17.7 0.00 2.69 2.69 99 1001.7
20260507071310 18 170 6.4 17.7 0.00 2.69 2.69 99 1001.7
20260507071210 18 169 6.4 17.7 0.00 2.69 2.69 99 1001.8
20260507071110 18 170 8.0 17.7 0.00 2.69 2.69 99 1001.9
20260507071031 18 171 8.0 17.7 0.00 2.69 2.69 99 1001.8
20260507070931 18 173 8.0 17.7 0.00 2.69 2.69 99 1002.1
20260507070810 18 175 6.4 17.7 0.00 2.69 2.69 99 1002.2
20260507070731 18 175 6.4 17.7 0.00 2.69 2.69 99 1002.1
20260507070610 18 175 12.9 17.7 0.00 2.69 2.69 99 1002.1
20260507070510 18 177 9.7 17.7 0.00 2.69 2.69 99 1002.1
20260507070410 18 179 6.4 17.7 0.00 2.69 2.69 99 1002.1
20260507070310 18 184 8.0 17.7 0.00 2.72 2.69 99 1002.1
20260507070210 18 187 6.4 17.7 0.00 2.72 2.69 99 1002.1
20260507070110 18 187 6.4 17.7 0.00 2.72 2.69 99 1002.0
20260507070013 18 187 8.0 17.7 0.00 2.77 2.69 99 1002.1
20260507065910 18 191 6.4 12.9 0.00 2.79 2.69 99 1002.0
20260507065810 18 188 4.8 11.3 0.00 2.79 2.69 99 1002.0
20260507065710 18 188 4.8 11.3 0.00 2.79 2.69 99 1002.1
20260507065631 18 190 4.8 11.3 0.00 2.79 2.69 99 1002.0
20260507065510 18 183 6.4 11.3 0.00 2.79 2.69 99 1002.2
20260507065410 18 183 6.4 11.3 0.00 2.79 2.69 99 1002.0
20260507065310 18 180 3.2 11.3 0.00 2.79 2.69 99 1002.0
20260507065210 18 177 4.8 11.3 0.00 2.79 2.69 99 1002.1
20260507065110 18 176 6.4 11.3 0.00 2.79 2.69 99 1002.0
20260507065031 18 176 3.2 11.3 0.00 2.79 2.69 99 1002.0
20260507064910 18 172 6.4 11.3 0.00 2.79 2.69 99 1001.9
20260507064810 18 176 3.2 11.3 0.00 2.79 2.69 99 1002.0
20260507064710 18 175 6.4 11.3 0.00 2.79 2.69 99 1002.0
20260507064610 18 178 0.0 11.3 0.00 2.79 2.69 99 1002.0
20260507064510 18 176 0.0 11.3 0.00 2.79 2.69 99 1002.2
20260507064410 18 175 0.0 11.3 0.00 2.79 2.69 99 1001.9
20260507064310 18 175 3.2 11.3 0.00 2.79 2.69 99 1001.9
20260507064210 18 172 6.4 11.3 0.00 2.79 2.69 99 1001.9
20260507064110 18 169 3.2 11.3 0.00 2.79 2.69 99 1001.9
20260507064031 18 166 6.4 11.3 0.00 2.79 2.69 99 1001.7
20260507063910 18 159 3.2 9.7 0.00 2.79 2.69 99 1001.7
20260507063810 18 154 6.4 9.7 0.00 2.79 2.69 99 1001.7
20260507063710 18 149 3.2 9.7 0.00 2.79 2.69 99 1001.6
20260507063610 18 151 3.2 9.7 0.00 2.79 2.69 99 1001.7
20260507063510 18 152 4.8 9.7 0.00 2.79 2.69 99 1001.6
20260507063431 18 153 3.2 9.7 0.00 2.79 2.69 99 1001.4
20260507063310 18 157 4.8 11.3 0.00 2.79 2.69 99 1001.5
20260507063210 18 164 4.8 12.9 0.00 2.79 2.69 99 1001.3
20260507063110 18 172 4.8 12.9 0.00 2.79 2.69 99 1001.4
20260507063011 18 175 3.2 12.9 0.00 2.79 2.69 99 1001.3
20260507062931 18 176 3.2 12.9 0.00 2.79 2.69 99 1001.3
20260507062831 18 176 3.2 12.9 0.00 2.79 2.69 99 1001.3
20260507062710 18 176 3.2 12.9 0.00 2.79 2.69 99 1001.3
20260507062610 18 177 6.4 12.9 0.00 2.79 2.69 99 1001.2
20260507062510 18 178 4.8 12.9 0.00 2.79 2.69 99 1001.3
20260507062431 18 177 4.8 12.9 0.00 2.79 2.69 99 1001.3
20260507062310 18 176 6.4 12.9 0.00 2.79 2.69 99 1001.5
20260507062210 18 173 8.0 12.9 0.00 2.79 2.69 99 1001.3
20260507062110 18 171 6.4 11.3 0.00 2.79 2.69 99 1001.2
20260507062010 18 170 4.8 11.3 0.00 2.79 2.69 99 1001.2
20260507061910 18 175 4.8 11.3 0.00 2.79 2.69 99 1001.3
20260507061810 18 178 6.4 9.7 0.00 2.79 2.69 99 1001.0
20260507061710 18 183 4.8 9.7 0.00 2.79 2.69 99 1001.3
20260507061610 18 184 4.8 9.7 0.00 2.79 2.69 99 1001.3
20260507061510 18 187 4.8 9.7 0.00 2.79 2.69 99 1001.1
20260507061410 18 189 4.8 9.7 0.00 2.79 2.69 99 1001.3
20260507061310 18 193 4.8 9.7 0.00 2.79 2.69 99 1001.1
20260507061231 18 195 6.4 9.7 0.00 2.79 2.69 99 1001.2
20260507061110 18 198 3.2 6.4 0.00 2.79 2.69 99 1001.3
20260507061010 18 202 3.2 6.4 0.00 2.79 2.69 99 1001.5
20260507060910 18 202 3.2 6.4 0.00 2.79 2.69 99 1001.6
20260507060810 18 202 3.2 6.4 0.00 2.79 2.69 99 1001.4
20260507060710 18 202 3.2 6.4 0.00 2.79 2.69 99 1001.2
20260507060610 18 0 0.0 0.0 0.00 2.79 2.69 99 1001.3
20260507060510 18 0 0.0 0.0 0.00 2.79 2.69 99 1001.2
20260507060431 18 0 0.0 0.0 0.00 2.79 2.69 99 1001.2
20260507060332 18 0 0.0 0.0 0.00 2.79 2.69 99 1001.1
20260507060210 18 0 0.0 0.0 0.00 2.79 2.69 99 1001.4
20260507060110 18 0 0.0 0.0 0.00 2.79 2.69 99 1001.3
20260507060031 18 0 0.0 0.0 0.00 2.79 2.69 99 1001.4
20260507055910 18 0 0.0 0.0 0.00 2.79 2.69 99 1001.3
20260507055810 18 0 0.0 0.0 0.03 2.79 2.69 99 1001.4
20260507055710 18 0 0.0 0.0 0.03 2.79 2.69 99 1001.6
20260507055610 18 0 0.0 0.0 0.03 2.79 2.69 99 1001.5
20260507055510 18 0 0.0 0.0 0.03 2.79 2.69 99 1001.6
20260507055410 18 0 0.0 0.0 0.03 2.79 2.69 99 1001.6
20260507055310 18 0 0.0 0.0 0.03 2.79 2.69 99 1001.5
20260507055231 18 0 0.0 0.0 0.03 2.79 2.69 99 1001.5
20260507055110 18 112 0.0 3.2 0.03 2.79 2.69 99 1001.6
20260507055010 18 112 0.0 6.4 0.03 2.79 2.69 99 1001.6
20260507054910 18 112 0.0 6.4 0.03 2.79 2.69 99 1001.6
20260507054810 18 117 0.0 6.4 0.03 2.79 2.69 99 1001.5
20260507054710 18 117 0.0 9.7 0.03 2.79 2.69 99 1001.5
20260507054631 18 119 0.0 9.7 0.03 2.79 2.69 99 1001.6
20260507054510 18 121 0.0 9.7 0.03 2.79 2.69 99 1001.3
20260507054410 18 125 0.0 11.3 0.03 2.79 2.69 99 1001.4
20260507054310 18 124 0.0 11.3 0.03 2.79 2.69 99 1001.5
20260507054210 18 125 0.0 11.3 0.03 2.79 2.69 99 1001.3
20260507054110 18 127 1.6 11.3 0.03 2.79 2.69 99 1001.3
20260507054010 18 131 3.2 11.3 0.03 2.79 2.69 99 1001.4
20260507053910 18 136 4.8 12.9 0.03 2.79 2.69 99 1001.2
20260507053831 18 136 3.2 12.9 0.03 2.79 2.69 99 1001.1
20260507053710 18 141 4.8 14.5 0.03 2.79 2.69 99 1000.8
20260507053610 18 140 3.2 20.9 0.03 2.79 2.69 99 1000.8
20260507053510 18 146 3.2 20.9 0.03 2.79 2.69 99 1000.9
20260507053410 18 148 4.8 20.9 0.03 2.79 2.69 99 1001.0
20260507053310 18 149 6.4 20.9 0.03 2.79 2.69 99 1001.0
20260507053210 18 151 4.8 20.9 0.03 2.79 2.69 99 1001.1
20260507053110 18 149 6.4 25.7 0.03 2.79 2.69 99 1001.2
20260507053011 18 149 6.4 25.7 0.03 2.79 2.69 99 1001.2
20260507052910 18 153 6.4 25.7 0.03 2.79 2.69 99 1001.2
20260507052810 18 156 8.0 25.7 0.03 2.79 2.69 99 1001.1
20260507052710 18 158 6.4 25.7 0.03 2.79 2.69 99 1001.4
20260507052610 18 163 11.3 25.7 0.03 2.79 2.69 99 1001.4
20260507052510 18 161 9.7 25.7 0.03 2.79 2.69 99 1001.1
20260507052431 18 161 9.7 25.7 0.05 2.79 2.69 99 1001.2
20260507052310 18 164 6.4 25.7 0.05 2.79 2.69 99 1001.2
20260507052210 18 166 12.9 25.7 0.20 2.79 2.69 99 1001.1
20260507052131 18 169 12.9 25.7 0.30 2.79 2.69 99 1001.1
20260507052010 18 174 12.9 17.7 0.43 2.79 2.69 99 1001.3
20260507051910 18 168 8.0 17.7 0.56 2.79 2.69 99 1001.4
20260507051810 18 167 6.4 11.3 0.86 2.79 2.69 99 1001.3
20260507051710 18 165 4.8 11.3 0.97 2.79 2.69 99 1001.4
20260507051610 18 165 4.8 11.3 1.09 2.79 2.69 98 1001.3
20260507051510 18 164 6.4 12.9 1.19 2.79 2.69 98 1001.4
20260507051410 18 170 3.2 12.9 1.37 2.79 2.69 98 1001.2
20260507051310 18 169 3.2 12.9 1.45 2.79 2.69 98 1001.1
20260507051210 18 170 3.2 12.9 1.55 2.79 2.69 98 1001.3
20260507051110 18 166 6.4 14.5 1.65 2.79 2.69 98 1001.3
20260507051031 18 166 4.8 14.5 1.80 2.79 2.69 98 1001.3
20260507050910 18 165 3.2 14.5 1.85 2.79 2.69 98 1001.3
20260507050810 18 157 4.8 14.5 1.88 2.79 2.69 98 1001.3
20260507050710 18 159 6.4 14.5 2.01 2.79 2.69 98 1001.1
20260507050610 18 157 4.8 14.5 2.13 2.79 2.69 98 1001.2
20260507050510 18 162 6.4 14.5 2.21 2.79 2.69 98 1001.2
20260507050410 18 158 3.2 14.5 2.31 2.79 2.69 98 1001.1
20260507050310 18 155 3.2 14.5 2.31 2.79 2.69 98 1001.3
20260507050210 18 153 4.8 14.5 2.36 2.79 2.69 98 1001.0
20260507050110 18 156 8.0 14.5 2.44 2.79 2.69 98 1001.3
20260507050032 18 156 8.0 14.5 2.46 2.79 2.69 98 1001.3
20260507045910 18 160 4.8 17.7 2.49 2.79 2.69 98 1001.3
20260507045810 18 166 8.0 35.4 2.51 2.77 2.67 98 1001.5
20260507045710 18 168 6.4 35.4 2.54 2.77 2.67 98 1001.4
20260507045610 18 172 9.7 35.4 2.59 2.77 2.67 98 1001.3
20260507045510 18 171 9.7 35.4 2.62 2.77 2.67 98 1001.2
20260507045410 18 171 6.4 35.4 2.62 2.77 2.67 98 1001.4
20260507045331 18 173 6.4 35.4 2.64 2.77 2.67 98 1001.4
20260507045210 19 177 8.0 35.4 2.64 2.77 2.67 98 1001.1
20260507045110 19 181 8.0 35.4 2.64 2.77 2.67 98 1001.2
20260507045010 19 186 11.3 35.4 2.64 2.77 2.67 97 1001.1
20260507044910 20 190 12.9 35.4 2.64 2.77 2.67 97 1001.1
20260507044810 20 198 19.3 35.4 2.64 2.77 2.67 97 1001.7
20260507044710 20 208 12.9 25.7 2.64 2.77 2.67 98 1001.6
20260507044610 20 223 9.7 20.9 2.64 2.77 2.67 98 1001.5
20260507044510 20 238 12.9 24.1 2.64 2.77 2.67 97 1001.7
20260507044410 20 255 8.0 24.1 2.67 2.77 2.67 97 1001.5
20260507044310 20 260 6.4 24.1 2.67 2.77 2.67 97 1001.4
20260507044210 20 268 4.8 24.1 2.67 2.77 2.67 97 1001.3
20260507044131 20 270 4.8 24.1 2.67 2.77 2.67 97 1001.3
20260507044031 20 270 6.4 24.1 2.67 2.77 2.67 97 1001.2
20260507043910 20 272 6.4 24.1 2.67 2.77 2.67 97 1001.3
20260507043810 20 268 8.0 24.1 2.67 2.77 2.67 97 1001.5
20260507043710 20 271 12.9 24.1 2.67 2.77 2.67 97 1001.4
20260507043610 20 273 17.7 24.1 2.67 2.77 2.67 97 1001.2
20260507043510 20 269 17.7 25.7 2.67 2.77 2.67 97 1001.2
20260507043432 20 266 16.1 25.7 2.67 2.77 2.67 97 1000.9
20260507043310 20 274 11.3 25.7 2.67 2.77 2.67 97 1000.6
20260507043210 20 276 11.3 25.7 2.67 2.77 2.67 97 1000.7
20260507043110 20 273 12.9 43.5 2.67 2.77 2.67 97 1000.5
20260507043011 20 274 11.3 43.5 2.67 2.77 2.67 97 1000.7
20260507042931 20 275 11.3 43.5 2.67 2.77 2.67 97 1000.7
20260507042810 20 281 16.1 43.5 2.67 2.77 2.67 97 1000.6
20260507042710 20 280 16.1 43.5 2.67 2.77 2.67 97 1000.4
20260507042610 19 282 11.3 43.5 2.67 2.77 2.67 97 999.8
20260507042510 19 282 12.9 43.5 2.67 2.77 2.67 97 999.6
20260507042431 19 286 14.5 43.5 2.64 2.72 2.64 97 999.2
20260507042310 19 280 14.5 43.5 2.64 2.72 2.64 97 999.2
20260507042210 20 276 12.9 43.5 2.49 2.59 2.49 97 999.2
20260507042110 20 275 20.9 43.5 2.39 2.49 2.39 97 999.7
20260507042010 20 271 11.3 35.4 2.29 2.36 2.29 97 1000.8
20260507041910 20 264 14.5 35.4 2.13 2.21 2.13 97 1001.0
20260507041810 20 252 14.5 35.4 1.83 1.93 1.83 96 1001.6
20260507041710 20 249 14.5 35.4 1.75 1.83 1.75 96 1001.8
20260507041631 20 247 22.5 35.4 1.63 1.70 1.63 96 1001.7
20260507041510 20 240 12.9 33.8 1.50 1.60 1.50 96 1001.6
20260507041410 20 236 17.7 33.8 1.32 1.42 1.32 96 1001.4
20260507041331 20 233 17.7 33.8 1.27 1.35 1.32 96 1001.4
20260507041231 19 221 14.5 32.2 1.14 1.22 1.14 95 1000.9
20260507041131 19 225 12.9 29.0 1.04 1.14 1.04 95 1001.0
20260507041010 19 220 12.9 29.0 0.89 0.99 0.89 95 1001.5
20260507040910 19 221 17.7 29.0 0.84 0.94 0.84 95 1001.7
20260507040810 19 216 12.9 29.0 0.81 0.89 0.81 94 1001.4
20260507040710 19 206 12.9 24.1 0.69 0.79 0.69 94 1001.4
20260507040610 19 192 9.7 17.7 0.56 0.66 0.56 94 1001.5
20260507040531 19 185 9.7 17.7 0.48 0.56 0.56 94 1001.5
20260507040410 19 179 4.8 17.7 0.38 0.48 0.38 93 1001.1
20260507040310 19 171 4.8 17.7 0.38 0.48 0.38 93 1001.0
20260507040210 19 167 6.4 17.7 0.33 0.43 0.33 93 1001.0
20260507040110 19 162 6.4 24.1 0.28 0.36 0.28 93 1000.4
20260507040011 19 163 9.7 24.1 0.23 0.33 0.23 93 1000.3
20260507035910 19 164 6.4 35.4 0.20 0.30 0.20 92 1000.3
20260507035810 18 167 8.0 35.4 0.15 0.23 0.15 92 1000.3
20260507035710 18 167 9.7 35.4 0.13 0.20 0.13 92 1000.3
20260507035610 18 168 9.7 35.4 0.10 0.18 0.10 91 1000.1
20260507035510 19 173 9.7 35.4 0.05 0.15 0.05 91 1000.2
20260507035410 19 173 11.3 35.4 0.05 0.15 0.05 90 1000.5
20260507035331 19 177 11.3 35.4 0.03 0.13 0.05 90 1000.5
20260507035210 20 187 9.7 35.4 0.03 0.13 0.03 89 1000.9
20260507035110 20 197 14.5 35.4 0.03 0.13 0.03 89 1000.9
20260507035010 21 214 17.7 35.4 0.03 0.13 0.03 88 1000.7
20260507034910 22 242 19.3 27.4 0.03 0.13 0.03 87 1000.4
20260507034810 23 271 16.1 20.9 0.03 0.13 0.03 88 1000.3
20260507034710 23 294 6.4 20.9 0.03 0.13 0.03 89 1000.1
20260507034610 23 306 3.2 20.9 0.03 0.13 0.03 89 999.8
20260507034510 23 310 3.2 22.5 0.03 0.13 0.03 89 999.6
20260507034411 23 316 6.4 22.5 0.00 0.10 0.00 89 999.6
20260507034310 23 321 4.8 22.5 0.00 0.10 0.00 89 999.6
20260507034210 23 323 3.2 22.5 0.00 0.10 0.00 89 999.8
20260507034110 23 325 6.4 22.5 0.00 0.10 0.00 89 999.9
20260507034010 23 327 6.4 22.5 0.00 0.10 0.00 89 999.7
20260507033910 23 332 4.8 22.5 0.00 0.10 0.00 89 999.7
20260507033810 23 335 9.7 22.5 0.00 0.10 0.00 89 999.6
20260507033710 23 334 6.4 22.5 0.00 0.10 0.00 89 999.6
20260507033610 23 333 8.0 22.5 0.00 0.10 0.00 89 999.6
20260507033510 23 335 12.9 22.5 0.00 0.10 0.00 89 999.5
20260507033410 23 334 8.0 20.9 0.00 0.10 0.00 88 999.4
20260507033310 23 332 8.0 20.9 0.00 0.10 0.00 88 999.4
20260507033210 23 334 11.3 20.9 0.00 0.10 0.00 88 999.3
20260507033110 23 333 11.3 20.9 0.00 0.10 0.00 88 999.0
20260507033011 23 332 11.3 20.9 0.00 0.10 0.00 88 998.8
20260507032910 23 329 9.7 20.9 0.00 0.10 0.00 88 998.6
20260507032810 23 328 14.5 20.9 0.00 0.10 0.00 88 998.6
20260507032710 23 330 14.5 20.9 0.00 0.10 0.00 88 998.6
20260507032610 23 334 12.9 17.7 0.00 0.10 0.00 88 998.7
20260507032510 23 333 9.7 17.7 0.00 0.10 0.00 88 998.8
20260507032431 23 335 9.7 17.7 0.00 0.10 0.00 88 999.0
20260507032310 23 341 8.0 17.7 0.00 0.10 0.00 88 998.9
20260507032232 23 342 8.0 17.7 0.00 0.10 0.00 88 999.0
20260507032110 23 346 11.3 17.7 0.00 0.10 0.00 88 999.1
20260507032010 23 349 9.7 17.7 0.00 0.10 0.00 88 999.1
20260507031910 23 352 11.3 17.7 0.00 0.10 0.00 88 999.2
20260507031810 23 355 11.3 14.5 0.00 0.10 0.00 88 998.9
20260507031710 23 353 6.4 14.5 0.00 0.10 0.00 88 998.9
20260507031610 23 351 6.4 14.5 0.00 0.10 0.00 87 998.8
20260507031510 23 349 6.4 14.5 0.00 0.10 0.00 87 998.8
20260507031410 23 349 6.4 14.5 0.00 0.10 0.00 87 999.0
20260507031310 23 347 8.0 14.5 0.00 0.10 0.00 87 999.3
20260507031210 23 345 8.0 14.5 0.00 0.10 0.00 87 999.2
20260507031110 23 342 9.7 14.5 0.00 0.10 0.00 87 999.2
20260507031010 23 339 6.4 14.5 0.00 0.10 0.00 87 999.2
20260507030931 23 340 6.4 14.5 0.00 0.10 0.00 87 999.2
20260507030810 23 335 8.0 12.9 0.00 0.10 0.00 87 999.5
20260507030710 23 334 8.0 12.9 0.00 0.10 0.00 87 999.6
20260507030634 23 333 6.4 12.9 0.00 0.10 0.00 87 999.7
20260507030511 23 335 6.4 12.9 0.00 0.10 0.00 87 999.7
20260507030410 23 334 6.4 12.9 0.00 0.10 0.00 88 999.7
20260507030310 23 334 6.4 12.9 0.00 0.10 0.00 88 1000.0
20260507030210 23 334 8.0 12.9 0.00 0.10 0.00 88 999.9
20260507030110 23 334 8.0 12.9 0.00 0.10 0.00 88 999.9
20260507030011 23 334 6.4 11.3 0.00 0.10 0.00 88 999.9
20260507025910 23 334 6.4 11.3 0.00 0.10 0.10 88 999.9
20260507025810 23 334 6.4 11.3 0.00 0.10 0.10 88 999.9
20260507025710 23 336 4.8 14.5 0.00 0.10 0.10 88 1000.1
20260507025610 23 342 4.8 14.5 0.00 0.10 0.10 88 999.9
20260507025510 23 344 4.8 14.5 0.00 0.10 0.10 88 1000.2
20260507025410 23 346 6.4 14.5 0.00 0.10 0.10 88 1000.1
20260507025310 23 346 6.4 14.5 0.00 0.10 0.10 88 1000.2
20260507025210 23 345 4.8 14.5 0.00 0.10 0.10 88 1000.3
20260507025131 23 345 4.8 14.5 0.00 0.10 0.10 88 1000.2
20260507025010 23 348 6.4 14.5 0.00 0.10 0.10 87 1000.3
20260507024910 23 348 6.4 14.5 0.00 0.10 0.10 87 1000.4
20260507024810 23 350 4.8 14.5 0.00 0.10 0.10 87 1000.2
20260507024710 23 348 8.0 14.5 0.00 0.10 0.10 87 1000.2
20260507024610 23 344 6.4 14.5 0.00 0.10 0.10 87 1000.2
20260507024510 23 344 6.4 14.5 0.00 0.10 0.10 87 1000.0
20260507024410 23 340 6.4 14.5 0.00 0.10 0.10 87 1000.0
20260507024310 23 338 6.4 14.5 0.00 0.10 0.10 87 999.9
20260507024210 23 337 6.4 14.5 0.00 0.10 0.10 87 1000.1
20260507024131 23 336 6.4 14.5 0.00 0.10 0.10 87 1000.1
20260507024010 23 333 6.4 14.5 0.00 0.10 0.10 87 1000.1
20260507023910 23 331 8.0 14.5 0.00 0.10 0.10 87 1000.3
20260507023810 23 328 8.0 14.5 0.00 0.10 0.10 88 1000.5
20260507023710 23 328 6.4 14.5 0.00 0.10 0.10 88 1000.7
20260507023610 23 330 9.7 14.5 0.00 0.10 0.10 88 1000.8
20260507023510 23 328 6.4 12.9 0.00 0.10 0.10 88 1000.8
20260507023410 23 330 6.4 12.9 0.00 0.10 0.10 88 1001.0
20260507023310 23 332 6.4 12.9 0.00 0.10 0.10 88 1001.0
20260507023210 23 335 6.4 11.3 0.00 0.10 0.10 88 1000.9
20260507023110 23 336 6.4 11.3 0.00 0.10 0.10 88 1001.0
20260507023032 23 337 3.2 9.7 0.00 0.10 0.10 88 1000.8
20260507022910 23 339 3.2 9.7 0.00 0.10 0.10 88 1000.9
20260507022810 23 340 3.2 9.7 0.00 0.10 0.10 88 1000.9
20260507022710 23 343 4.8 9.7 0.00 0.10 0.10 88 1000.9
20260507022610 23 346 6.4 9.7 0.00 0.10 0.10 88 1001.0
20260507022510 23 348 4.8 9.7 0.00 0.10 0.10 88 1001.0
20260507022410 23 351 4.8 9.7 0.00 0.10 0.10 88 1001.0
20260507022310 23 355 4.8 9.7 0.00 0.10 0.10 88 1001.0
20260507022231 23 354 6.4 9.7 0.00 0.10 0.10 88 1001.1
20260507022131 23 355 6.4 11.3 0.00 0.10 0.10 88 1001.1
20260507022010 23 355 4.8 11.3 0.00 0.10 0.10 88 1001.2
20260507021910 23 355 3.2 11.3 0.00 0.10 0.10 88 1001.1
20260507021810 23 354 4.8 11.3 0.00 0.10 0.10 88 1001.0
20260507021731 23 352 4.8 11.3 0.00 0.10 0.10 88 1001.0
20260507021610 23 348 4.8 11.3 0.00 0.10 0.10 88 1001.0
20260507021510 23 343 4.8 11.3 0.00 0.10 0.10 88 1001.1
20260507021431 23 342 3.2 11.3 0.00 0.10 0.10 88 1001.0
20260507021310 23 335 6.4 11.3 0.00 0.10 0.10 88 1001.1
20260507021210 23 335 6.4 12.9 0.00 0.10 0.10 88 1000.7
20260507021110 23 332 6.4 12.9 0.00 0.10 0.10 88 1001.0
20260507021010 23 334 3.2 12.9 0.00 0.10 0.10 88 1001.0
20260507020910 23 335 3.2 12.9 0.00 0.10 0.10 87 1001.1
20260507020810 23 334 6.4 12.9 0.00 0.10 0.10 87 1001.1
20260507020731 23 332 6.4 12.9 0.00 0.10 0.10 87 1001.1
20260507020610 24 331 4.8 12.9 0.00 0.10 0.10 87 1001.3
20260507020510 24 331 6.4 12.9 0.00 0.10 0.10 87 1001.3
20260507020410 24 329 6.4 12.9 0.00 0.10 0.10 87 1001.2
20260507020310 24 332 6.4 12.9 0.00 0.10 0.10 87 1001.3
20260507020210 24 333 6.4 12.9 0.00 0.10 0.10 87 1001.2
20260507020110 24 333 6.4 12.9 0.00 0.10 0.10 87 1001.2
20260507020010 24 333 8.0 12.9 0.00 0.10 0.10 87 1001.2
20260507015931 24 333 6.4 11.3 0.00 0.10 0.10 87 1001.1
20260507015831 24 331 6.4 11.3 0.00 0.10 0.10 87 1001.3
20260507015710 24 332 6.4 11.3 0.00 0.10 0.10 87 1001.1
20260507015610 24 336 8.0 11.3 0.00 0.10 0.10 87 1001.2
20260507015510 24 335 6.4 11.3 0.00 0.10 0.10 87 1001.3
20260507015431 24 336 6.4 11.3 0.00 0.10 0.10 87 1001.2
20260507015310 24 336 4.8 11.3 0.00 0.10 0.10 87 1001.2
20260507015210 24 335 6.4 11.3 0.00 0.10 0.10 87 1001.3
20260507015131 24 337 6.4 11.3 0.00 0.10 0.10 87 1001.3
20260507015010 24 338 4.8 11.3 0.00 0.10 0.10 87 1001.4
20260507014910 24 337 6.4 11.3 0.00 0.10 0.10 87 1001.5
20260507014810 24 338 4.8 11.3 0.00 0.10 0.10 87 1001.5
20260507014710 24 336 6.4 11.3 0.00 0.10 0.10 87 1001.6
20260507014631 24 336 4.8 11.3 0.00 0.10 0.10 87 1001.7
20260507014510 23 337 6.4 11.3 0.00 0.10 0.10 87 1001.8
20260507014431 23 337 6.4 9.7 0.00 0.10 0.10 87 1001.7
20260507014310 23 337 6.4 9.7 0.00 0.10 0.10 88 1001.5
20260507014210 23 337 4.8 9.7 0.00 0.10 0.10 87 1001.6
20260507014110 23 335 3.2 9.7 0.00 0.10 0.10 87 1001.5
20260507014010 23 333 6.4 9.7 0.00 0.10 0.10 88 1001.7
20260507013910 23 334 4.8 9.7 0.00 0.10 0.10 88 1001.5
20260507013810 23 335 4.8 9.7 0.00 0.10 0.10 88 1001.6
20260507013710 23 339 6.4 9.7 0.00 0.10 0.10 88 1001.5
20260507013610 23 340 6.4 9.7 0.00 0.10 0.10 88 1001.4
20260507013510 23 343 4.8 11.3 0.00 0.10 0.10 88 1001.3
20260507013410 23 343 6.4 11.3 0.00 0.10 0.10 88 1001.4
20260507013310 23 343 4.8 11.3 0.00 0.10 0.10 88 1001.4
20260507013210 23 344 6.4 11.3 0.00 0.10 0.10 88 1001.3
20260507013110 23 346 4.8 11.3 0.00 0.10 0.10 88 1001.3
20260507013011 23 348 4.8 11.3 0.00 0.10 0.10 88 1001.4
20260507012910 23 350 4.8 11.3 0.00 0.10 0.10 88 1001.3
20260507012810 23 353 3.2 11.3 0.00 0.10 0.10 88 1001.2
20260507012710 23 351 4.8 11.3 0.00 0.10 0.10 88 1001.3
20260507012610 23 352 4.8 11.3 0.00 0.10 0.10 88 1001.2
20260507012510 23 352 4.8 9.7 0.00 0.10 0.10 88 1001.3
20260507012410 23 354 4.8 9.7 0.00 0.10 0.10 88 1001.3
20260507012310 24 359 3.2 9.7 0.00 0.10 0.10 87 1001.4
20260507012231 24 1 3.2 9.7 0.00 0.10 0.10 87 1001.4
20260507012110 24 3 3.2 9.7 0.00 0.10 0.10 87 1001.3
20260507012010 24 6 3.2 9.7 0.00 0.10 0.10 87 1001.2
20260507011910 24 9 3.2 9.7 0.00 0.10 0.10 87 1001.4
20260507011810 24 11 4.8 9.7 0.00 0.10 0.10 87 1001.4
20260507011710 24 15 4.8 9.7 0.00 0.10 0.10 86 1001.3
20260507011610 24 16 4.8 9.7 0.00 0.10 0.10 86 1001.5
20260507011510 24 17 4.8 9.7 0.00 0.10 0.10 86 1001.6
20260507011410 24 18 4.8 9.7 0.00 0.10 0.10 86 1001.5
20260507011310 24 18 4.8 9.7 0.00 0.10 0.10 86 1001.4
20260507011110 24 15 4.8 9.7 0.00 0.10 0.10 86 1001.5
20260507011010 24 12 6.4 9.7 0.00 0.10 0.10 86 1001.6
20260507010910 24 10 4.8 9.7 0.00 0.10 0.10 86 1001.7
20260507010810 25 9 3.2 9.7 0.00 0.10 0.10 86 1001.7
20260507010710 25 8 3.2 9.7 0.00 0.10 0.10 86 1001.8
20260507010613 25 9 4.8 9.7 0.00 0.10 0.10 85 1001.7
20260507010531 25 11 4.8 9.7 0.00 0.10 0.10 85 1001.6
20260507010431 25 10 4.8 9.7 0.00 0.10 0.10 85 1001.7
20260507010310 25 8 4.8 9.7 0.00 0.10 0.10 85 1001.7
20260507010210 25 7 3.2 9.7 0.00 0.10 0.10 85 1001.6
20260507010110 25 10 3.2 9.7 0.00 0.10 0.10 85 1001.9
20260507010010 25 9 4.8 9.7 0.00 0.10 0.10 85 1001.8
20260507005910 25 10 4.8 9.7 0.00 0.10 0.10 85 1001.9
20260507005810 25 7 1.6 9.7 0.00 0.10 0.10 85 1001.6
20260507005710 25 8 1.6 14.5 0.00 0.10 0.10 85 1001.7
20260507005610 25 10 1.6 14.5 0.00 0.10 0.10 85 1001.7
20260507005531 25 6 3.2 14.5 0.00 0.10 0.10 85 1001.8
20260507005410 25 2 3.2 14.5 0.00 0.10 0.10 85 1001.8
20260507005332 25 1 3.2 14.5 0.00 0.10 0.10 85 1001.8
20260507005210 25 358 3.2 14.5 0.00 0.10 0.10 85 1001.6
20260507005131 25 356 3.2 14.5 0.00 0.10 0.10 85 1001.8
20260507005010 25 354 6.4 14.5 0.00 0.10 0.10 84 1001.9
20260507004910 25 351 4.8 17.7 0.00 0.10 0.10 84 1002.1
20260507004810 25 348 6.4 17.7 0.00 0.10 0.10 84 1002.1
20260507004631 25 342 9.7 17.7 0.00 0.10 0.10 84 1002.1
20260507004510 25 339 9.7 17.7 0.00 0.10 0.10 84 1002.0
20260507004410 25 336 6.4 17.7 0.00 0.10 0.10 84 1002.0
20260507004310 25 338 6.4 17.7 0.00 0.10 0.10 84 1002.1
20260507004210 25 337 6.4 17.7 0.00 0.10 0.10 84 1001.9
20260507004110 25 336 9.7 17.7 0.00 0.10 0.10 85 1002.1
20260507004010 25 332 11.3 17.7 0.00 0.10 0.10 85 1001.9
20260507003910 25 335 11.3 17.7 0.00 0.10 0.10 86 1002.2
20260507003810 25 335 6.4 11.3 0.00 0.10 0.10 86 1002.1
20260507003710 25 329 4.8 6.4 0.00 0.10 0.10 86 1002.3
20260507003631 25 320 4.8 6.4 0.00 0.10 0.10 86 1002.5
20260507003531 25 299 3.2 6.4 0.00 0.10 0.10 86 1002.4
20260507003410 25 283 3.2 6.4 0.00 0.10 0.10 86 1002.6
20260507003310 25 273 0.0 6.4 0.00 0.10 0.10 86 1002.6
20260507003231 25 276 0.0 6.4 0.00 0.10 0.10 86 1002.6
20260507003131 25 281 0.0 6.4 0.00 0.10 0.10 86 1002.7
20260507003010 25 286 0.0 6.4 0.00 0.10 0.10 86 1002.5
20260507002910 25 287 0.0 6.4 0.00 0.10 0.10 86 1002.5
20260507002831 25 289 1.6 6.4 0.00 0.10 0.10 86 1002.7
20260507002731 25 292 1.6 6.4 0.00 0.10 0.10 86 1002.6
20260507002631 25 296 3.2 6.4 0.00 0.10 0.10 86 1002.5
20260507002510 24 304 3.2 6.4 0.00 0.10 0.10 87 1002.5
20260507002410 24 309 4.8 6.4 0.00 0.10 0.10 87 1002.5
20260507002310 24 318 3.2 6.4 0.00 0.10 0.10 87 1002.5
20260507002231 24 320 3.2 3.2 0.00 0.10 0.10 87 1002.6
20260507002110 24 325 1.6 3.2 0.00 0.10 0.10 87 1002.5
20260507002010 24 333 0.0 3.2 0.00 0.10 0.10 87 1002.3
20260507001910 24 340 1.6 3.2 0.00 0.10 0.10 87 1002.5
20260507001832 24 344 1.6 3.2 0.00 0.10 0.10 87 1002.5
20260507001710 24 354 3.2 3.2 0.00 0.10 0.10 87 1002.5
20260507001610 24 2 1.6 3.2 0.00 0.10 0.10 87 1002.7
20260507001531 24 6 0.0 3.2 0.00 0.10 0.10 87 1002.6
20260507001410 24 9 0.0 3.2 0.00 0.10 0.10 87 1002.4
20260507001310 24 9 0.0 3.2 0.00 0.10 0.10 87 1002.2
20260507001210 24 8 0.0 3.2 0.00 0.10 0.10 87 1002.2
20260507001110 24 7 1.6 3.2 0.00 0.10 0.10 87 1002.2
20260507001010 24 7 3.2 3.2 0.00 0.10 0.10 87 1002.5
20260507000910 24 7 1.6 3.2 0.00 0.10 0.10 87 1002.2
20260507000810 24 7 3.2 3.2 0.00 0.10 0.10 87 1002.4
20260507000710 24 7 3.2 3.2 0.00 0.10 0.10 87 1002.3
20260507000610 24 5 3.2 3.2 0.00 0.10 0.10 87 1002.3
20260507000510 24 3 3.2 3.2 0.00 0.10 0.10 87 1002.4
20260507000410 24 1 3.2 3.2 0.00 0.10 0.10 87 1002.2
20260507000310 24 360 3.2 3.2 0.00 0.10 0.10 87 1002.1
20260507000212 24 360 3.2 3.2 0.00 0.10 0.10 87 1002.4
20260507000110 24 359 3.2 3.2 0.00 0.10 0.10 87 1002.3
20260507000011 24 358 3.2 3.2 0.00 0.10 0.10 87 1002.2
20260506235910 24 358 3.2 3.2 0.00 0.10 0.10 87 1002.3
20260506235831 24 358 3.2 3.2 0.00 0.10 0.10 87 1002.3
20260506235710 24 358 3.2 3.2 0.00 0.10 0.10 87 1002.2
20260506235631 24 357 3.2 3.2 0.00 0.10 0.10 87 1002.2
20260506235510 24 356 3.2 6.4 0.00 0.10 0.10 87 1002.2
20260506235410 24 356 3.2 6.4 0.00 0.10 0.10 87 1002.2
20260506235310 24 357 1.6 6.4 0.00 0.10 0.10 87 1002.2
20260506235210 24 354 3.2 6.4 0.00 0.10 0.10 87 1001.9
20260506235131 24 355 1.6 6.4 0.00 0.10 0.10 87 1002.1
20260506235010 24 356 1.6 6.4 0.00 0.10 0.10 87 1002.0
20260506234910 24 355 1.6 6.4 0.00 0.10 0.10 87 1001.8
20260506234810 24 353 1.6 6.4 0.00 0.10 0.10 87 1002.0
20260506234710 24 353 3.2 6.4 0.00 0.10 0.10 87 1002.0
20260506234610 24 354 3.2 6.4 0.00 0.10 0.10 87 1002.0
20260506234510 24 355 3.2 6.4 0.00 0.10 0.10 87 1001.9
20260506234410 24 355 3.2 6.4 0.00 0.10 0.10 87 1001.7
20260506234310 24 352 3.2 6.4 0.00 0.10 0.10 87 1001.8
20260506234210 24 352 3.2 6.4 0.00 0.10 0.10 87 1002.0
20260506234131 24 351 3.2 6.4 0.00 0.10 0.10 87 1002.0
20260506234010 24 351 3.2 6.4 0.00 0.10 0.10 87 1001.9
20260506233910 24 351 3.2 6.4 0.00 0.10 0.10 87 1001.8
20260506233810 24 353 3.2 6.4 0.00 0.10 0.10 87 1001.8
20260506233710 24 353 3.2 6.4 0.00 0.10 0.10 87 1001.8
20260506233610 24 353 3.2 6.4 0.00 0.10 0.10 87 1001.8
20260506233510 24 353 3.2 6.4 0.00 0.10 0.10 87 1002.0
20260506233410 24 353 3.2 6.4 0.00 0.10 0.10 87 1001.9
20260506233310 24 353 3.2 6.4 0.00 0.10 0.10 87 1001.7
20260506233231 24 355 3.2 6.4 0.00 0.10 0.10 87 1001.7
20260506233110 24 357 3.2 6.4 0.00 0.10 0.10 87 1001.8
20260506233010 24 357 3.2 6.4 0.00 0.10 0.10 87 1001.8
20260506232910 24 358 3.2 6.4 0.00 0.10 0.10 87 1001.6
20260506232831 24 358 3.2 6.4 0.00 0.10 0.10 87 1001.5
20260506232710 24 358 3.2 6.4 0.00 0.10 0.10 87 1001.7
20260506232610 24 358 3.2 6.4 0.00 0.10 0.10 87 1001.6
20260506232510 24 358 4.8 6.4 0.00 0.10 0.10 87 1001.6
20260506232410 24 358 3.2 6.4 0.00 0.10 0.10 87 1001.6
20260506232310 24 360 3.2 6.4 0.00 0.10 0.10 87 1001.7
20260506232231 24 2 3.2 6.4 0.00 0.10 0.10 87 1001.6
20260506232110 24 2 3.2 6.4 0.00 0.10 0.10 87 1001.6
20260506232010 24 2 3.2 6.4 0.00 0.10 0.10 87 1001.7
20260506231910 24 1 3.2 6.4 0.00 0.10 0.10 87 1001.7
20260506231810 24 1 3.2 6.4 0.00 0.10 0.10 87 1001.5
20260506231710 24 1 3.2 6.4 0.00 0.10 0.10 87 1001.5
20260506231610 24 1 3.2 6.4 0.00 0.10 0.10 87 1001.6
20260506231531 24 1 3.2 6.4 0.00 0.10 0.10 87 1001.5
20260506231410 24 1 3.2 6.4 0.00 0.10 0.10 87 1001.4
20260506231310 24 1 3.2 6.4 0.00 0.10 0.10 87 1001.4
20260506231210 24 359 3.2 6.4 0.00 0.10 0.10 87 1001.5
20260506231110 24 359 4.8 6.4 0.00 0.10 0.10 86 1001.6
20260506231010 24 360 3.2 6.4 0.00 0.10 0.10 86 1001.6
20260506230910 24 1 3.2 6.4 0.00 0.10 0.10 86 1001.4
20260506230810 24 1 3.2 6.4 0.00 0.10 0.10 86 1001.5
20260506230731 24 1 3.2 6.4 0.00 0.10 0.10 86 1001.3
20260506230610 24 1 3.2 6.4 0.00 0.10 0.10 86 1001.4
20260506230510 24 3 3.2 6.4 0.00 0.10 0.10 86 1001.3
20260506230410 25 1 3.2 6.4 0.00 0.10 0.10 86 1001.2
20260506230332 25 1 3.2 6.4 0.00 0.10 0.10 86 1001.4
20260506230210 25 1 3.2 6.4 0.00 0.10 0.10 86 1001.4
20260506230110 25 1 3.2 6.4 0.00 0.10 0.10 86 1001.4
20260506230010 25 2 3.2 6.4 0.00 0.10 0.10 85 1001.2
20260506225910 25 2 3.2 6.4 0.00 0.10 0.10 85 1001.3
20260506225810 25 2 3.2 6.4 0.00 0.10 0.10 85 1001.4
20260506225710 25 4 3.2 6.4 0.00 0.10 0.10 85 1001.5
20260506225610 25 4 3.2 6.4 0.00 0.10 0.10 85 1001.3
20260506225510 25 2 3.2 6.4 0.00 0.10 0.10 85 1001.5
20260506225410 25 5 3.2 6.4 0.00 0.10 0.10 85 1001.4
20260506225310 25 4 3.2 6.4 0.00 0.10 0.10 85 1001.6
20260506225210 25 4 3.2 6.4 0.00 0.10 0.10 85 1001.4
20260506225131 25 4 3.2 6.4 0.00 0.10 0.10 85 1001.4
20260506225010 25 3 1.6 6.4 0.00 0.10 0.10 85 1001.3
20260506224910 25 360 3.2 6.4 0.00 0.10 0.10 85 1001.5
20260506224810 25 360 3.2 6.4 0.00 0.10 0.10 85 1001.4
20260506224710 25 359 3.2 6.4 0.00 0.10 0.10 85 1001.6
20260506224610 25 358 3.2 6.4 0.00 0.10 0.10 85 1001.6
20260506224532 25 358 3.2 6.4 0.00 0.10 0.10 85 1001.6
20260506224410 25 360 3.2 6.4 0.00 0.10 0.10 85 1001.5
20260506224310 25 360 3.2 6.4 0.00 0.10 0.10 85 1001.4
20260506224210 25 1 3.2 6.4 0.00 0.10 0.10 85 1001.5
20260506224110 25 1 3.2 6.4 0.00 0.10 0.10 85 1001.6
20260506224010 25 1 3.2 6.4 0.00 0.10 0.10 85 1001.3
20260506223910 25 2 3.2 6.4 0.00 0.10 0.10 85 1001.7
20260506223831 25 360 3.2 6.4 0.00 0.10 0.10 85 1001.6
20260506223730 25 357 3.2 6.4 0.00 0.10 0.10 85 1001.6
20260506223610 25 357 3.2 6.4 0.00 0.10 0.10 84 1001.4
20260506223510 25 357 3.2 6.4 0.00 0.10 0.10 84 1001.3
20260506223410 25 356 3.2 6.4 0.00 0.10 0.10 84 1001.4
20260506223332 25 356 3.2 6.4 0.00 0.10 0.10 84 1001.4
20260506223231 25 358 3.2 6.4 0.00 0.10 0.10 84 1001.4
20260506223109 25 1 3.2 6.4 0.00 0.10 0.10 84 1001.3
20260506223010 25 3 3.2 6.4 0.00 0.10 0.10 84 1001.3
20260506222909 25 2 3.2 6.4 0.00 0.10 0.10 84 1001.4
20260506222810 25 7 3.2 6.4 0.00 0.10 0.10 84 1001.2
20260506222731 25 8 3.2 6.4 0.00 0.10 0.10 84 1001.3
20260506222610 25 7 3.2 6.4 0.00 0.10 0.10 84 1001.2
20260506222510 25 6 3.2 6.4 0.00 0.10 0.10 84 1001.2
20260506222431 25 4 3.2 6.4 0.00 0.10 0.10 84 1001.2
20260506222310 25 4 3.2 9.7 0.00 0.10 0.10 84 1001.3
20260506222210 25 3 4.8 9.7 0.00 0.10 0.10 84 1001.0
20260506222131 25 3 4.8 9.7 0.00 0.10 0.10 84 1001.0
20260506222031 25 1 3.2 9.7 0.00 0.10 0.10 83 1001.0
20260506221909 25 2 4.8 9.7 0.00 0.10 0.10 83 1001.2
20260506221810 25 360 4.8 9.7 0.00 0.10 0.10 83 1001.1
20260506221710 25 359 4.8 9.7 0.00 0.10 0.10 83 1001.0
20260506221632 25 359 4.8 9.7 0.00 0.10 0.10 83 1001.1
20260506221510 25 359 4.8 9.7 0.00 0.10 0.10 83 1001.0
20260506221410 25 1 4.8 9.7 0.00 0.10 0.10 83 1001.2
20260506221331 25 360 4.8 9.7 0.00 0.10 0.10 83 1001.2
20260506221210 25 1 4.8 9.7 0.00 0.10 0.10 83 1000.9
20260506221131 25 1 4.8 9.7 0.00 0.10 0.10 83 1001.0
20260506221010 26 1 3.2 11.3 0.00 0.10 0.10 83 1001.1
20260506220910 26 4 4.8 12.9 0.00 0.10 0.10 83 1000.9
20260506220810 26 6 4.8 12.9 0.00 0.10 0.10 83 1001.1
20260506220710 26 9 4.8 12.9 0.00 0.10 0.10 83 1001.1
20260506220610 26 10 3.2 12.9 0.00 0.10 0.10 82 1001.2
20260506220531 26 11 3.2 12.9 0.00 0.10 0.10 82 1001.2
20260506220410 26 15 6.4 12.9 0.00 0.10 0.10 82 1001.0
20260506220310 26 17 4.8 12.9 0.00 0.10 0.10 82 1000.9
20260506220210 26 16 3.2 12.9 0.00 0.10 0.10 82 1000.9
20260506220110 26 17 4.8 12.9 0.00 0.10 0.10 82 1001.1
20260506220010 26 16 6.4 12.9 0.00 0.10 0.10 82 1000.9
20260506215931 26 15 4.8 12.9 0.00 0.10 0.10 82 1001.0
20260506215810 26 9 3.2 9.7 0.00 0.10 0.10 82 1001.0
20260506215710 26 8 3.2 9.7 0.00 0.10 0.10 82 1001.0
20260506215610 26 7 3.2 9.7 0.00 0.10 0.10 82 1001.0
20260506215510 26 9 3.2 9.7 0.00 0.10 0.10 82 1001.0
20260506215410 26 6 3.2 9.7 0.00 0.10 0.10 82 1000.9
20260506215310 26 8 3.2 9.7 0.00 0.10 0.10 82 1001.0
20260506215231 26 7 3.2 9.7 0.00 0.10 0.10 82 1001.1
20260506215110 26 7 3.2 11.3 0.00 0.10 0.10 82 1001.0
20260506215010 26 11 3.2 11.3 0.00 0.10 0.10 81 1001.1
20260506214910 26 11 3.2 11.3 0.00 0.10 0.10 81 1000.9
20260506214810 26 12 3.2 11.3 0.00 0.10 0.10 81 1000.8
20260506214710 26 12 3.2 12.9 0.00 0.10 0.10 81 1000.8
20260506214610 26 14 4.8 12.9 0.00 0.10 0.10 81 1000.9
20260506214510 26 12 4.8 12.9 0.00 0.10 0.10 81 1000.8
20260506214432 26 10 6.4 12.9 0.00 0.10 0.10 80 1000.7
20260506214310 26 3 6.4 12.9 0.00 0.10 0.10 80 1000.8
20260506214210 26 1 6.4 12.9 0.00 0.10 0.10 80 1000.6
20260506214110 26 2 6.4 12.9 0.00 0.10 0.10 80 1000.8
20260506214009 26 359 6.4 12.9 0.00 0.10 0.10 80 1000.6
20260506213910 26 359 6.4 12.9 0.00 0.10 0.10 80 1000.8
20260506213810 26 360 6.4 12.9 0.00 0.10 0.10 80 1000.9
20260506213710 26 360 6.4 12.9 0.00 0.10 0.10 80 1000.9
20260506213609 26 357 4.8 11.3 0.00 0.10 0.10 80 1000.6
20260506213510 26 356 6.4 11.3 0.00 0.10 0.10 80 1000.8
20260506213431 26 356 4.8 11.3 0.00 0.10 0.10 80 1001.0
20260506213310 26 360 6.4 11.3 0.00 0.10 0.10 80 1000.9
20260506213210 26 360 4.8 11.3 0.00 0.10 0.10 79 1001.0
20260506213110 26 359 4.8 11.3 0.00 0.10 0.10 79 1001.0
20260506213010 26 357 6.4 11.3 0.00 0.10 0.10 79 1000.9
20260506212910 26 357 6.4 11.3 0.00 0.10 0.10 79 1000.8
20260506212810 26 355 6.4 11.3 0.00 0.10 0.10 79 1000.9
20260506212710 26 354 6.4 11.3 0.00 0.10 0.10 79 1001.0
20260506212610 26 354 4.8 11.3 0.00 0.10 0.10 79 1001.0
20260506212510 26 353 6.4 11.3 0.00 0.10 0.10 79 1001.1
20260506212410 26 354 6.4 11.3 0.00 0.10 0.10 78 1001.1
20260506212310 27 353 6.4 11.3 0.00 0.10 0.10 78 1001.1
20260506212210 27 355 6.4 11.3 0.00 0.10 0.10 78 1001.0
20260506212131 27 355 6.4 11.3 0.00 0.10 0.10 78 1001.0
20260506212010 27 356 6.4 11.3 0.00 0.10 0.10 78 1001.1
20260506211931 27 355 6.4 11.3 0.00 0.10 0.10 78 1001.1
20260506211810 27 354 6.4 11.3 0.00 0.10 0.10 78 1001.2
20260506211710 27 354 6.4 11.3 0.00 0.10 0.10 78 1001.2
20260506211610 27 353 6.4 11.3 0.00 0.10 0.10 78 1001.0
20260506211510 27 355 6.4 11.3 0.00 0.10 0.10 78 1001.2
20260506211410 27 355 6.4 11.3 0.00 0.10 0.10 78 1001.3
20260506211331 27 354 6.4 11.3 0.00 0.10 0.10 78 1001.3
20260506211210 27 349 6.4 11.3 0.00 0.10 0.10 78 1001.0
20260506211131 27 349 6.4 14.5 0.00 0.10 0.10 78 1001.3
20260506211010 27 351 4.8 14.5 0.00 0.10 0.10 77 1001.3
20260506210910 27 351 4.8 14.5 0.00 0.10 0.10 77 1001.4
20260506210810 27 353 6.4 14.5 0.00 0.10 0.10 77 1001.2
20260506210710 27 355 6.4 14.5 0.00 0.10 0.10 77 1001.2
20260506210610 27 356 6.4 14.5 0.00 0.10 0.10 77 1001.1
20260506210531 27 357 6.4 14.5 0.00 0.10 0.10 77 1001.1
20260506210410 27 358 6.4 14.5 0.00 0.10 0.10 77 1001.1
20260506210331 27 1 6.4 14.5 0.00 0.10 0.10 76 1001.2
20260506210210 27 6 6.4 14.5 0.00 0.10 0.10 76 1001.1
20260506210110 27 6 6.4 12.9 0.00 0.10 0.10 76 1001.1
20260506210010 27 5 6.4 14.5 0.00 0.10 0.10 76 1001.2
20260506205910 27 4 6.4 14.5 0.00 0.10 0.10 76 1001.2
20260506205810 27 3 6.4 14.5 0.00 0.10 0.10 76 1001.3
20260506205731 27 360 6.4 14.5 0.00 0.10 0.10 76 1001.3
20260506205610 27 358 6.4 14.5 0.00 0.10 0.10 76 1001.1
20260506205510 27 356 6.4 14.5 0.00 0.10 0.10 76 1001.3
20260506205410 27 355 4.8 14.5 0.00 0.10 0.10 75 1001.5
20260506205310 27 354 6.4 14.5 0.00 0.10 0.10 75 1001.3
20260506205210 27 352 6.4 14.5 0.00 0.10 0.10 75 1001.4
20260506205109 27 352 6.4 14.5 0.00 0.10 0.10 75 1001.5
20260506205010 27 351 6.4 14.5 0.00 0.10 0.10 74 1001.5
20260506204910 27 351 9.7 14.5 0.00 0.10 0.10 74 1001.5
20260506204831 27 350 6.4 14.5 0.00 0.10 0.10 74 1001.7
20260506204710 27 350 8.0 14.5 0.00 0.10 0.10 74 1001.7
20260506204631 27 349 6.4 14.5 0.00 0.10 0.10 74 1001.9
20260506204510 27 346 9.7 14.5 0.00 0.10 0.10 74 1001.9
20260506204410 27 348 8.0 17.7 0.00 0.10 0.10 74 1001.9
20260506204331 27 346 8.0 17.7 0.00 0.10 0.10 74 1001.9
20260506204231 27 346 9.7 17.7 0.00 0.10 0.10 74 1001.9
20260506204110 28 348 6.4 17.7 0.00 0.10 0.10 73 1001.9
20260506204010 28 351 8.0 17.7 0.00 0.10 0.10 73 1002.1
20260506203910 28 349 6.4 17.7 0.00 0.10 0.10 73 1002.1
20260506203810 28 350 6.4 17.7 0.00 0.10 0.10 73 1002.2
20260506203710 28 351 6.4 17.7 0.00 0.10 0.10 73 1002.1
20260506203609 28 353 6.4 17.7 0.00 0.10 0.10 73 1002.2
20260506203531 28 355 9.7 17.7 0.00 0.10 0.10 73 1002.2
20260506203410 28 355 6.4 17.7 0.00 0.10 0.10 73 1002.2
20260506203330 28 355 6.4 17.7 0.00 0.10 0.10 73 1002.2
20260506203230 28 356 6.4 17.7 0.00 0.10 0.10 73 1001.9
20260506203110 28 354 8.0 17.7 0.00 0.10 0.10 73 1001.8
20260506203010 28 353 9.7 14.5 0.00 0.10 0.10 73 1002.1
20260506202910 28 355 8.0 14.5 0.00 0.10 0.10 73 1002.1
20260506202809 28 355 9.7 14.5 0.00 0.10 0.10 73 1002.0
20260506202709 28 356 6.4 14.5 0.00 0.10 0.10 73 1002.0
20260506202610 28 354 6.4 14.5 0.00 0.10 0.10 73 1002.3
20260506202509 28 350 6.4 14.5 0.00 0.10 0.10 73 1002.1
20260506202410 28 351 6.4 14.5 0.00 0.10 0.10 72 1002.1
20260506202310 28 351 4.8 14.5 0.00 0.10 0.10 72 1002.2
20260506202210 28 348 6.4 14.5 0.00 0.10 0.10 72 1002.0
20260506202110 28 349 4.8 14.5 0.00 0.10 0.10 72 1002.1
20260506202009 28 348 8.0 14.5 0.00 0.10 0.10 71 1002.2
20260506201910 28 348 6.4 14.5 0.00 0.10 0.10 71 1002.2
20260506201809 28 350 6.4 17.7 0.00 0.10 0.10 71 1002.2
20260506201731 28 351 6.4 17.7 0.00 0.10 0.10 71 1002.2
20260506201610 28 351 6.4 17.7 0.00 0.10 0.10 71 1002.3
20260506201509 28 351 9.7 17.7 0.00 0.10 0.10 70 1002.4
20260506201409 28 351 6.4 17.7 0.00 0.10 0.10 70 1002.4
20260506201310 29 350 9.7 17.7 0.00 0.10 0.10 70 1002.3
20260506201209 29 351 6.4 17.7 0.00 0.10 0.10 70 1002.2
20260506201110 29 352 11.3 17.7 0.00 0.10 0.10 70 1002.4
20260506201009 29 351 8.0 20.9 0.00 0.10 0.10 69 1002.3
20260506200910 29 350 9.7 20.9 0.00 0.10 0.10 69 1002.3
20260506200809 29 348 9.7 24.1 0.00 0.10 0.10 69 1002.1
20260506200709 29 344 9.7 24.1 0.00 0.10 0.10 69 1002.1
20260506200610 29 347 9.7 24.1 0.00 0.10 0.10 69 1002.2
20260506200510 29 350 12.9 24.1 0.00 0.10 0.10 68 1002.2
20260506200410 29 350 11.3 24.1 0.00 0.10 0.10 68 1002.2
20260506200330 29 350 11.3 24.1 0.00 0.10 0.10 69 1002.0
20260506200231 29 347 12.9 24.1 0.00 0.10 0.10 68 1002.3
20260506200109 29 344 9.7 25.7 0.00 0.10 0.10 68 1002.0
20260506200031 29 345 12.9 25.7 0.00 0.10 0.10 68 1002.3
20260506195909 29 348 12.9 25.7 0.00 0.10 0.10 68 1002.1
20260506195809 29 346 9.7 25.7 0.00 0.10 0.10 68 1002.2
20260506195710 29 347 12.9 27.4 0.00 0.10 0.10 68 1002.1
20260506195610 29 341 12.9 27.4 0.00 0.10 0.10 68 1002.2
20260506195509 29 339 12.9 27.4 0.00 0.10 0.10 67 1002.2
20260506195409 29 340 8.0 27.4 0.00 0.10 0.10 68 1002.2
20260506195310 29 341 12.9 27.4 0.00 0.10 0.10 67 1002.1
20260506195231 29 344 14.5 27.4 0.00 0.10 0.10 67 1002.0
20260506195131 29 344 14.5 27.4 0.00 0.10 0.10 67 1002.1
20260506195031 29 343 11.3 27.4 0.00 0.10 0.10 67 1002.2
20260506194910 29 345 12.9 27.4 0.00 0.10 0.10 67 1002.1
20260506194810 29 343 12.9 27.4 0.00 0.10 0.10 67 1002.0
20260506194710 29 344 17.7 27.4 0.00 0.10 0.10 67 1002.1
20260506194631 29 344 12.9 27.4 0.00 0.10 0.10 68 1002.2
20260506194510 30 349 12.9 27.4 0.00 0.10 0.10 68 1001.9
20260506194410 30 351 14.5 27.4 0.00 0.10 0.10 68 1001.9
20260506194310 30 351 12.9 24.1 0.00 0.10 0.10 69 1002.1
20260506194210 30 352 12.9 24.1 0.00 0.10 0.10 69 1001.8
20260506194110 30 355 12.9 24.1 0.00 0.10 0.10 69 1002.0
20260506194009 30 356 14.5 24.1 0.00 0.10 0.10 69 1001.8
20260506193910 30 355 14.5 24.1 0.00 0.10 0.10 69 1001.9
20260506193831 30 356 11.3 24.1 0.00 0.10 0.10 69 1001.8
20260506193731 30 359 12.9 24.1 0.00 0.10 0.10 69 1001.9
20260506193609 30 1 12.9 22.5 0.00 0.10 0.10 69 1001.8
20260506193510 30 359 9.7 22.5 0.00 0.10 0.10 69 1001.8
20260506193409 30 357 9.7 24.1 0.00 0.10 0.10 69 1001.9
20260506193310 30 354 11.3 24.1 0.00 0.10 0.10 69 1001.9
20260506193210 30 352 14.5 24.1 0.00 0.10 0.10 68 1001.8
20260506193131 30 351 12.9 24.1 0.00 0.10 0.10 68 1002.0
20260506193031 30 349 11.3 24.1 0.00 0.10 0.10 68 1001.9
20260506192910 30 349 11.3 24.1 0.00 0.10 0.10 68 1002.0
20260506192809 30 349 9.7 24.1 0.00 0.10 0.10 68 1001.8
20260506192731 30 347 12.9 24.1 0.00 0.10 0.10 68 1002.0
20260506192610 30 347 8.0 24.1 0.00 0.10 0.10 68 1001.9
20260506192531 30 348 8.0 24.1 0.00 0.10 0.10 68 1001.9
20260506192410 30 346 12.9 24.1 0.00 0.10 0.10 68 1001.9
20260506192309 30 349 11.3 20.9 0.00 0.10 0.10 68 1001.9
20260506192210 29 347 9.7 20.9 0.00 0.10 0.10 69 1002.1
20260506192110 29 348 11.3 20.9 0.00 0.10 0.10 69 1001.9
20260506192031 29 350 11.3 20.9 0.00 0.10 0.10 69 1002.0
20260506191910 30 350 12.9 20.9 0.00 0.10 0.10 69 1002.0
20260506191809 30 347 8.0 20.9 0.00 0.10 0.10 68 1002.1
20260506191710 30 352 11.3 20.9 0.00 0.10 0.10 68 1001.8
20260506191610 30 352 9.7 20.9 0.00 0.10 0.10 68 1001.9
20260506191509 30 352 11.3 20.9 0.00 0.10 0.10 67 1002.0
20260506191410 30 356 12.9 20.9 0.00 0.10 0.10 67 1001.9
20260506191331 30 355 11.3 20.9 0.00 0.10 0.10 67 1002.2
20260506191209 30 357 9.7 20.9 0.00 0.10 0.10 67 1001.9
20260506191109 30 2 11.3 22.5 0.00 0.10 0.10 67 1001.9
20260506191010 30 360 9.7 22.5 0.00 0.10 0.10 67 1002.0
20260506190910 30 359 12.9 22.5 0.00 0.10 0.10 67 1002.0
20260506190810 30 1 9.7 22.5 0.00 0.10 0.10 67 1001.9
20260506190709 30 359 12.9 22.5 0.00 0.10 0.10 67 1002.1
20260506190631 30 358 11.3 22.5 0.00 0.10 0.10 67 1002.1
20260506190510 30 359 12.9 22.5 0.00 0.10 0.10 67 1002.1
20260506190409 30 356 11.3 22.5 0.00 0.10 0.10 67 1002.1
20260506190310 30 352 8.0 22.5 0.00 0.10 0.10 67 1002.1
20260506190209 30 351 17.7 22.5 0.00 0.10 0.10 66 1002.1
20260506190110 30 349 11.3 20.9 0.00 0.10 0.10 67 1002.3
20260506190010 30 351 9.7 20.9 0.00 0.10 0.10 67 1002.2
20260506185909 30 350 11.3 20.9 0.00 0.10 0.10 67 1002.1
20260506185831 30 349 9.7 20.9 0.00 0.10 0.10 66 1002.2
20260506185710 30 351 8.0 22.5 0.00 0.10 0.10 67 1002.2
20260506185631 30 352 11.3 22.5 0.00 0.10 0.10 66 1002.3
20260506185509 30 353 11.3 22.5 0.00 0.10 0.10 66 1002.2
20260506185409 30 353 12.9 22.5 0.00 0.10 0.10 66 1002.3
20260506185309 30 357 12.9 22.5 0.00 0.10 0.10 65 1002.3
20260506185231 30 1 11.3 22.5 0.00 0.10 0.10 66 1002.3
20260506185109 30 359 11.3 22.5 0.00 0.10 0.10 66 1002.3
20260506185010 30 359 6.4 22.5 0.00 0.10 0.10 66 1002.4
20260506184909 30 358 8.0 22.5 0.00 0.10 0.10 67 1002.2
20260506184810 30 358 9.7 22.5 0.00 0.10 0.10 66 1002.3
20260506184732 30 356 12.9 22.5 0.00 0.10 0.10 66 1002.2
20260506184609 30 355 14.5 22.5 0.00 0.10 0.10 66 1002.2
20260506184510 30 354 12.9 22.5 0.00 0.10 0.10 67 1002.3
20260506184410 30 355 12.9 22.5 0.00 0.10 0.10 67 1002.2
20260506184309 30 352 14.5 22.5 0.00 0.10 0.10 67 1002.4
20260506184231 30 349 12.9 22.5 0.00 0.10 0.10 67 1002.2
20260506184109 29 349 9.7 24.1 0.00 0.10 0.10 67 1002.4
20260506184009 29 347 11.3 24.1 0.00 0.10 0.10 67 1002.4
20260506183910 29 346 12.9 24.1 0.00 0.10 0.10 67 1002.4
20260506183810 29 346 12.9 24.1 0.00 0.10 0.10 68 1002.4
20260506183731 29 347 12.9 24.1 0.00 0.10 0.10 68 1002.4
20260506183609 29 345 9.7 24.1 0.00 0.10 0.10 68 1002.4
20260506183510 29 347 12.9 24.1 0.00 0.10 0.10 68 1002.3
20260506183409 30 345 11.3 24.1 0.00 0.10 0.10 68 1002.3
20260506183310 30 345 12.9 24.1 0.00 0.10 0.10 67 1002.4
20260506183231 30 345 12.9 24.1 0.00 0.10 0.10 67 1002.4
20260506183131 30 347 12.9 22.5 0.00 0.10 0.10 67 1002.4
20260506183010 30 350 12.9 22.5 0.00 0.10 0.10 66 1002.3
20260506182909 30 352 9.7 20.9 0.00 0.10 0.10 67 1002.2
20260506182809 30 350 11.3 20.9 0.00 0.10 0.10 66 1002.2
20260506182710 30 351 12.9 22.5 0.00 0.10 0.10 66 1002.3
20260506182609 30 356 12.9 22.5 0.00 0.10 0.10 66 1002.3
20260506182509 30 356 12.9 22.5 0.00 0.10 0.10 66 1002.4
20260506182409 30 357 16.1 22.5 0.00 0.10 0.10 66 1002.3
20260506182309 30 360 16.1 22.5 0.00 0.10 0.10 65 1002.5
20260506182231 30 360 12.9 22.5 0.00 0.10 0.10 66 1002.3
20260506182109 30 357 9.7 22.5 0.00 0.10 0.10 66 1002.3
20260506182009 30 354 12.9 22.5 0.00 0.10 0.10 67 1002.2
20260506181931 30 351 12.9 22.5 0.00 0.10 0.10 66 1002.3
20260506181809 30 350 9.7 22.5 0.00 0.10 0.10 67 1002.4
20260506181710 30 349 12.9 22.5 0.00 0.10 0.10 67 1002.2
20260506181610 30 342 11.3 17.7 0.00 0.10 0.10 67 1002.4
20260506181531 30 340 9.7 17.7 0.00 0.10 0.10 67 1002.3
20260506181409 30 340 12.9 20.9 0.00 0.10 0.10 66 1002.5
20260506181309 30 337 12.9 20.9 0.00 0.10 0.10 66 1002.3
20260506181210 30 339 11.3 20.9 0.00 0.10 0.10 66 1002.3
20260506181131 30 339 6.4 20.9 0.00 0.10 0.10 67 1002.5
20260506181009 30 342 9.7 20.9 0.00 0.10 0.10 67 1002.5
20260506180910 30 344 9.7 20.9 0.00 0.10 0.10 68 1002.4
20260506180809 30 345 9.7 20.9 0.00 0.10 0.10 68 1002.5
20260506180709 30 346 9.7 20.9 0.00 0.10 0.10 68 1002.4
20260506180609 30 347 12.9 20.9 0.00 0.10 0.10 67 1002.5
20260506180509 30 349 12.9 20.9 0.00 0.10 0.10 67 1002.5
20260506180409 30 349 11.3 20.9 0.00 0.10 0.10 67 1002.3
20260506180331 30 349 8.0 20.9 0.00 0.10 0.10 67 1002.5
20260506180209 30 351 11.3 22.5 0.00 0.10 0.10 66 1002.6
20260506180109 30 352 9.7 22.5 0.00 0.10 0.10 67 1002.6
20260506180010 30 348 6.4 22.5 0.00 0.10 0.10 67 1002.5
20260506175909 30 345 8.0 22.5 0.00 0.10 0.10 67 1002.4
20260506175830 30 345 8.0 22.5 0.00 0.10 0.10 67 1002.6
20260506175710 30 345 9.7 22.5 0.00 0.10 0.10 67 1002.6
20260506175609 30 345 11.3 24.1 0.00 0.10 0.10 67 1002.5
20260506175530 30 343 9.7 24.1 0.00 0.10 0.10 68 1002.4
20260506175409 30 339 8.0 24.1 0.00 0.10 0.10 67 1002.7
20260506175309 30 339 8.0 24.1 0.00 0.10 0.10 68 1002.4
20260506175209 30 337 17.7 24.1 0.00 0.10 0.10 67 1002.6
20260506175131 30 336 11.3 24.1 0.00 0.10 0.10 68 1002.7
20260506175009 30 338 9.7 24.1 0.00 0.10 0.10 67 1002.5
20260506174909 30 339 11.3 24.1 0.00 0.10 0.10 67 1002.6
20260506174809 30 337 6.4 24.1 0.00 0.10 0.10 67 1002.8
20260506174731 30 337 14.5 24.1 0.00 0.10 0.10 67 1002.6
20260506174609 30 339 12.9 22.5 0.00 0.10 0.10 67 1002.7
20260506174530 30 339 12.9 22.5 0.00 0.10 0.10 67 1002.7
20260506174410 30 341 12.9 20.9 0.00 0.10 0.10 68 1002.5
20260506174331 30 344 11.3 20.9 0.00 0.10 0.10 68 1002.9
20260506174210 30 347 12.9 22.5 0.00 0.10 0.10 67 1002.6
20260506174109 30 346 8.0 22.5 0.00 0.10 0.10 68 1002.8
20260506174009 30 346 11.3 22.5 0.00 0.10 0.10 67 1003.0
20260506173909 30 345 12.9 22.5 0.00 0.10 0.10 67 1002.9
20260506173809 30 348 11.3 22.5 0.00 0.10 0.10 67 1002.9
20260506173709 30 348 14.5 22.5 0.00 0.10 0.10 67 1003.0
20260506173609 30 346 11.3 22.5 0.00 0.10 0.10 67 1002.7
20260506173510 30 345 11.3 22.5 0.00 0.10 0.10 67 1002.8
20260506173409 30 342 12.9 22.5 0.00 0.10 0.10 67 1003.0
20260506173309 30 339 14.5 22.5 0.00 0.10 0.10 67 1002.9
20260506173209 30 338 11.3 22.5 0.00 0.10 0.10 66 1003.0
20260506173109 30 337 6.4 22.5 0.00 0.10 0.10 66 1002.9
20260506173010 30 338 12.9 22.5 0.00 0.10 0.10 67 1003.0
20260506172909 30 342 12.9 22.5 0.00 0.10 0.10 66 1003.0
20260506172809 30 342 8.0 22.5 0.00 0.10 0.10 67 1002.9
20260506172709 30 340 12.9 22.5 0.00 0.10 0.10 67 1003.0
20260506172609 30 340 11.3 22.5 0.00 0.10 0.10 68 1003.1
20260506172509 30 340 12.9 22.5 0.00 0.10 0.10 67 1002.9
20260506172409 30 342 12.9 22.5 0.00 0.10 0.10 68 1003.2
20260506172331 30 340 11.3 22.5 0.00 0.10 0.10 68 1002.8
20260506172209 30 337 11.3 22.5 0.00 0.10 0.10 68 1003.1
20260506172109 30 338 9.7 22.5 0.00 0.10 0.10 68 1003.0
20260506172030 30 338 12.9 22.5 0.00 0.10 0.10 68 1003.0
20260506171930 30 336 8.0 22.5 0.00 0.10 0.10 68 1003.2
20260506171810 30 336 12.9 22.5 0.00 0.10 0.10 68 1003.1
20260506171709 30 337 12.9 22.5 0.00 0.10 0.10 68 1003.2
20260506171609 30 338 12.9 22.5 0.00 0.10 0.10 68 1003.1
20260506171509 30 341 12.9 24.1 0.00 0.10 0.10 68 1003.2
20260506171431 30 342 12.9 24.1 0.00 0.10 0.10 68 1003.2
20260506171309 30 349 16.1 24.1 0.00 0.10 0.10 68 1003.2
20260506171209 30 352 9.7 24.1 0.00 0.10 0.10 69 1003.2
20260506171109 30 354 11.3 24.1 0.00 0.10 0.10 69 1003.3
20260506171009 30 357 9.7 24.1 0.00 0.10 0.10 69 1003.3
20260506170930 30 358 12.9 24.1 0.00 0.10 0.10 69 1003.5
20260506170809 30 357 11.3 24.1 0.00 0.10 0.10 69 1003.4
20260506170709 29 354 9.7 24.1 0.00 0.10 0.10 69 1003.6
20260506170609 29 351 8.0 24.1 0.00 0.10 0.10 70 1003.5